ECMWFFLT2_sfc_thetae_009.txt.gz
Theta_e
327 326 326 324 323 323 322 322 322 323 322 322 322 321 322 321 320 319 318 318 317 316 316 315 315 315 315 315 314 315 316 317 317 316 315 315 315 315 314 312 313 311 309 307 306 306 303 299 296 294 294 296
325 326 326 325 324 324 323 322 323 322 322 322 322 322 321 321 320 319 318 317 317 316 316 315 315 315 314 315 315 315 315 315 315 314 313 312 312 312 311 312 311 311 309 307 306 305 302 299 295 293 294 295
323 324 325 324 324 324 324 324 323 322 322 322 322 322 321 321 319 319 319 318 317 316 316 315 314 313 314 315 315 315 315 314 314 313 312 312 312 311 311 311 312 310 308 307 306 304 302 299 295 293 294 295
323 323 323 324 323 323 323 323 323 323 323 322 321 321 320 318 318 317 316 318 315 316 315 315 313 313 314 314 315 315 314 314 313 313 312 312 312 311 311 310 309 307 306 305 304 303 301 299 296 293 294 293
322 322 321 323 323 322 322 322 322 322 322 321 320 319 318 316 317 316 315 315 314 316 314 313 313 313 314 314 315 314 314 314 313 313 313 311 312 311 309 308 306 305 305 305 304 302 301 298 294 294 294 293
322 323 322 321 322 322 321 322 321 321 320 318 319 317 318 317 315 315 314 314 313 313 313 313 312 313 313 314 314 314 313 313 313 313 313 312 311 310 309 307 305 304 304 304 303 301 300 297 293 294 292 291
322 321 323 322 321 321 321 319 321 319 319 318 318 318 317 316 315 315 315 314 314 314 313 312 312 313 313 313 313 313 313 312 312 312 312 312 311 309 308 305 304 303 303 303 303 301 298 294 292 292 291 291
318 320 320 322 321 321 319 318 318 319 317 317 317 317 317 316 315 315 315 314 312 311 313 313 311 312 312 313 313 313 312 312 312 312 311 311 310 309 307 304 302 301 300 300 299 298 296 293 292 291 290 291
314 317 317 318 320 320 319 319 318 317 317 317 317 317 316 316 315 315 315 314 314 312 312 312 311 311 310 310 310 311 308 308 308 309 308 307 308 305 305 303 302 301 300 299 298 296 294 291 291 290 291 290
312 313 314 316 317 318 319 319 318 317 317 317 317 318 316 315 315 314 314 314 312 311 311 311 310 310 309 308 309 309 307 306 306 307 306 306 306 304 304 303 300 300 299 298 297 294 292 290 290 290 290 289
310 310 312 314 315 317 317 318 318 317 316 317 318 318 317 315 314 314 313 313 312 310 310 310 310 309 308 307 307 308 307 306 306 305 305 305 305 303 303 301 299 297 296 295 293 291 291 290 290 290 290 290
308 309 310 312 314 314 316 317 317 317 317 317 317 317 316 315 314 314 313 312 311 310 309 308 309 309 307 306 306 307 307 305 305 305 305 305 303 302 301 299 298 295 294 294 292 291 290 290 289 290 290 289
306 307 309 309 310 312 314 315 315 316 317 316 316 316 317 315 314 313 312 312 311 310 309 308 309 308 307 306 305 306 305 305 305 305 304 304 302 300 299 298 297 294 293 293 292 290 289 289 289 289 289 289
305 306 306 307 308 309 312 313 313 315 314 315 315 314 315 315 314 313 312 312 311 310 309 309 308 307 306 306 305 305 302 303 304 303 303 302 301 298 297 296 294 294 292 291 291 291 289 288 288 289 289 289
302 304 304 306 306 308 309 311 312 313 313 313 313 314 314 314 314 313 312 312 312 311 309 308 308 307 306 305 304 304 301 303 303 302 302 301 299 298 296 295 295 294 292 291 290 290 289 288 288 288 288 288
301 302 303 304 305 306 307 308 309 310 311 311 312 313 313 313 312 313 312 312 311 310 309 308 307 307 305 304 303 303 301 301 301 301 301 301 300 299 298 297 295 294 292 291 290 289 288 288 288 288 288 287
300 300 301 302 303 304 306 306 307 307 308 308 310 311 312 312 312 311 311 310 310 310 309 308 307 305 305 304 303 302 302 301 300 300 300 299 299 298 297 296 294 293 292 290 290 289 288 288 287 288 287 287
298 299 300 301 301 303 303 304 304 305 306 307 307 308 309 310 310 310 310 310 310 309 308 307 307 305 304 304 303 301 301 298 298 298 298 297 297 296 294 293 292 290 290 289 289 289 288 288 287 287 287 287
296 298 299 299 300 300 301 302 303 304 305 305 306 306 306 307 308 309 309 310 309 308 308 306 306 305 304 303 303 300 300 298 297 297 296 296 294 294 292 292 291 290 289 288 288 288 288 287 287 288 286 286
297 296 296 298 300 300 301 300 301 302 303 304 304 305 305 306 306 306 307 308 308 307 307 306 305 305 305 303 301 299 299 298 295 295 295 294 293 291 290 290 289 289 288 288 287 288 287 287 287 287 287 286
296 297 296 295 296 298 300 299 299 300 301 302 302 303 304 305 305 305 305 305 306 306 305 305 305 305 305 303 300 298 297 296 295 294 293 292 292 292 290 289 288 288 288 287 287 288 287 287 287 286 286 286
296 296 296 297 295 296 297 299 299 299 300 299 300 300 301 303 303 304 304 304 304 304 304 304 304 304 304 302 299 297 296 295 295 294 293 291 291 291 290 288 288 287 288 288 288 287 287 286 286 286 286 286
295 295 295 296 296 295 294 296 297 298 298 299 299 298 299 299 300 300 302 303 302 302 302 302 302 302 302 302 298 297 296 295 294 293 292 291 290 291 290 289 289 288 288 289 288 287 286 286 286 286 286 286
293 293 293 293 293 294 295 294 294 296 297 298 297 298 298 297 298 298 299 300 301 301 301 301 301 301 301 300 298 296 295 294 293 292 291 291 290 289 289 290 289 289 288 288 287 287 286 286 286 286 286 286
291 290 291 292 292 292 293 294 295 293 294 296 297 297 297 297 296 297 297 297 298 299 299 300 300 300 300 300 298 296 295 294 294 293 292 291 291 289 287 288 289 288 288 286 285 286 285 285 286 286 286 285
290 290 290 289 290 291 292 293 293 293 293 294 295 296 296 296 297 297 297 296 297 297 297 298 298 298 298 298 298 296 295 294 294 293 292 291 290 290 288 287 288 288 287 285 283 282 282 283 285 285 285 284
290 290 290 290 290 291 291 293 293 294 294 294 294 294 294 295 296 296 295 296 298 297 297 298 297 297 297 297 297 295 294 294 293 292 291 290 289 288 289 288 289 288 287 284 285 285 283 281 280 283 283 284
290 290 291 291 291 291 291 291 293 293 294 294 294 293 294 294 295 295 294 294 295 297 296 297 296 297 296 295 296 295 293 292 292 291 290 290 289 289 286 287 287 288 288 287 285 281 281 282 282 280 280 281
290 290 290 290 290 290 289 290 290 290 291 292 295 294 293 294 294 294 294 294 293 293 294 295 296 296 295 295 295 294 292 291 291 291 291 290 289 289 287 286 286 287 287 287 288 285 283 281 281 281 284 281
290 289 288 287 286 286 286 286 287 287 288 290 290 290 292 293 293 295 294 294 293 292 292 293 294 293 293 293 294 293 291 291 291 291 291 290 290 289 289 288 286 285 287 287 287 288 288 287 283 283 284 281
289 288 288 287 287 286 286 285 287 288 289 289 290 292 291 292 293 294 294 293 294 293 293 293 293 292 292 292 292 292 291 290 290 290 291 291 290 289 289 288 286 285 284 285 286 287 287 288 289 286 285 281

ECMWFFLT2_sfc_thetae_012.txt.gz
Theta_e
328 328 328 328 325 324 324 324 324 323 323 324 324 324 324 323 323 322 321 321 320 320 319 318 317 317 316 316 317 318 319 320 320 319 319 318 318 317 317 316 315 315 312 310 309 308 305 302 299 297 296 292
326 327 327 327 326 326 326 325 323 324 323 324 324 324 324 324 323 323 321 321 321 321 318 317 317 317 316 316 317 317 319 319 320 319 318 317 318 317 316 315 316 314 312 310 310 308 305 302 299 296 295 290
322 325 326 326 326 326 326 326 325 324 323 324 325 325 324 323 321 321 322 322 320 319 318 317 316 316 316 317 316 317 317 318 318 318 317 317 317 317 316 315 315 313 312 311 310 308 305 302 299 297 294 291
319 322 324 325 325 324 324 324 324 325 324 323 323 322 321 320 318 319 318 320 318 320 319 318 316 315 316 316 317 316 317 318 318 318 317 317 317 316 316 316 314 312 312 311 310 307 305 302 299 293 289 290
319 320 321 323 323 323 322 323 323 323 323 322 320 319 318 316 316 313 312 316 313 319 314 314 315 315 315 316 317 316 316 317 318 317 317 316 314 313 313 314 313 311 310 310 308 306 304 302 294 290 289 288
320 319 320 320 320 319 320 321 321 319 318 317 316 317 317 315 315 313 312 312 314 311 312 312 314 315 314 316 316 317 316 316 316 316 316 315 314 313 313 311 303 305 308 307 306 304 304 297 290 289 286 286
317 316 318 318 319 319 320 318 317 317 316 315 315 315 315 315 314 313 312 311 311 310 313 311 314 314 315 315 316 316 316 316 315 315 315 315 313 313 313 304 297 295 294 297 306 304 298 289 288 286 284 285
310 313 314 316 317 316 317 317 317 317 315 315 315 315 314 313 313 313 312 313 312 312 311 311 313 314 314 313 317 316 314 315 315 315 315 314 314 312 308 299 297 296 292 295 293 292 290 287 287 285 284 285
306 308 309 312 313 316 315 315 316 316 316 314 314 314 314 313 313 313 311 310 310 310 309 308 306 308 308 308 307 313 306 307 308 311 308 309 310 304 302 298 295 294 294 295 292 290 288 286 286 284 285 282
304 307 306 307 310 311 314 315 313 314 314 314 314 313 313 313 313 313 311 310 310 308 308 307 305 304 304 305 304 308 304 300 302 302 299 303 304 298 297 295 293 294 294 291 288 289 288 288 286 284 282 283
303 303 305 305 307 309 310 312 312 312 313 313 313 313 313 312 311 311 311 310 309 308 308 308 306 304 304 304 304 304 302 298 299 299 298 295 297 297 295 293 292 294 293 292 290 289 287 286 285 284 283 283
300 301 304 305 306 306 308 309 311 311 313 313 313 313 313 312 312 311 310 310 310 309 308 308 307 306 302 301 302 304 301 297 297 298 298 298 297 295 295 294 292 291 291 292 291 288 287 285 283 284 283 284
299 300 300 302 303 303 307 307 308 310 313 313 313 312 313 313 312 310 310 309 309 308 308 307 306 305 305 302 301 302 299 298 296 297 298 298 296 297 296 293 292 290 289 290 289 287 285 283 283 284 284 283
297 298 298 299 300 301 304 304 306 307 308 310 313 313 313 312 312 311 310 310 310 309 307 306 304 306 304 303 300 301 299 297 297 295 296 297 296 296 295 292 292 289 288 287 286 284 283 283 283 284 282 283
296 297 297 298 299 300 301 302 304 305 306 307 308 311 313 313 313 312 311 308 309 310 308 306 304 305 303 300 299 301 298 297 297 295 295 297 296 296 294 292 291 288 287 286 284 285 283 283 282 283 283 282
294 294 296 297 297 297 299 300 301 302 303 304 306 307 308 311 312 311 312 311 308 309 308 307 305 304 301 302 298 301 297 295 297 295 294 293 294 293 293 290 288 288 286 286 285 285 283 282 282 282 282 282
293 293 294 295 296 297 299 298 299 299 301 302 303 305 306 307 308 310 310 309 310 308 308 307 306 304 302 302 301 299 297 295 296 295 293 294 294 291 290 288 287 289 286 286 284 284 283 282 281 282 282 281
292 293 293 294 294 296 297 296 296 298 299 300 301 303 303 304 305 307 308 308 307 308 308 307 306 304 302 301 299 298 296 294 294 294 293 293 292 293 291 289 288 288 285 285 284 283 283 282 282 281 281 281
292 293 293 292 292 293 295 296 296 296 297 298 299 300 301 303 303 304 306 307 307 307 307 307 306 305 303 300 298 295 294 294 293 293 292 292 291 291 291 290 288 288 287 284 285 283 283 281 281 281 281 281
292 292 292 293 295 292 293 294 295 295 296 297 296 298 299 300 302 303 304 305 306 306 306 306 306 304 302 298 296 294 293 293 292 292 292 291 292 290 289 289 288 286 286 284 284 282 282 281 283 281 280 280
290 291 291 292 293 292 292 291 292 294 295 296 296 295 296 298 300 300 302 303 304 304 304 305 305 306 302 299 296 293 292 293 292 292 293 290 292 291 289 289 288 285 285 284 283 282 281 281 282 281 280 280
289 290 291 290 291 293 292 292 291 292 294 294 295 294 295 296 297 298 298 299 301 302 303 303 304 304 302 299 296 294 293 293 292 291 292 290 290 290 288 287 286 284 284 285 283 282 282 281 281 280 280 281
290 289 289 288 290 290 291 292 291 291 291 293 294 295 295 295 295 295 295 297 298 298 300 301 302 302 302 298 295 294 293 292 292 290 290 289 288 289 288 287 286 285 284 285 284 282 281 281 280 280 280 282
287 287 287 286 287 287 289 290 290 292 291 291 292 295 295 295 295 295 295 295 296 296 297 298 299 300 298 296 295 294 292 292 291 290 288 287 287 286 286 285 284 282 282 282 281 282 280 280 280 279 281 280
286 285 285 284 286 285 287 288 290 290 291 291 290 292 294 295 295 295 295 295 295 295 296 296 297 298 295 295 295 294 293 292 291 291 289 289 288 286 285 284 283 282 283 281 279 279 279 279 279 282 281 279
286 286 285 285 284 285 285 287 287 288 289 290 292 291 291 293 294 295 294 294 295 296 296 295 295 295 292 291 293 293 293 292 292 291 290 288 287 286 286 284 284 283 283 280 280 279 277 277 278 280 281 279
286 286 286 286 285 284 284 286 287 288 289 290 290 291 291 291 292 293 294 294 294 294 294 295 295 295 292 291 292 293 291 291 290 290 290 289 288 285 285 285 284 283 285 281 281 280 278 275 276 278 279 279
288 287 287 287 287 286 286 285 287 287 288 288 288 289 291 291 290 291 293 293 293 292 292 293 294 295 291 291 292 291 292 291 290 289 289 288 288 287 284 284 283 284 284 283 281 277 278 277 277 275 276 278
286 287 286 285 284 284 284 283 283 283 285 287 288 289 290 291 292 292 291 292 292 292 292 292 292 291 290 290 290 290 290 291 290 291 289 288 287 287 286 284 283 284 284 283 285 282 279 276 276 277 276 277
287 286 285 284 283 282 282 282 282 282 284 286 286 286 288 289 290 294 293 292 291 292 292 291 291 291 291 289 288 289 289 290 290 288 288 288 288 287 286 285 284 283 285 284 285 284 285 284 280 279 277 278
288 286 286 285 284 284 283 282 283 284 285 286 287 288 287 288 289 289 289 291 293 292 291 291 291 291 290 289 288 289 288 288 288 289 288 288 286 286 287 286 284 283 283 284 284 285 283 282 282 282 279 275

ECMWFFLT2_sfc_thetae_015.txt.gz
Theta_e
328 328 329 330 327 326 327 325 325 325 324 324 325 325 324 325 326 326 325 323 323 322 322 320 320 319 319 318 318 319 320 322 322 322 321 321 320 320 320 320 319 318 315 316 314 312 308 304 299 296 298 290
325 326 328 328 328 328 328 328 327 326 324 324 325 326 326 326 325 326 326 325 323 322 321 321 320 319 318 318 318 319 319 320 322 322 321 321 320 319 320 319 319 319 316 316 314 311 309 304 299 297 296 288
318 324 325 326 326 327 327 327 328 327 326 326 325 326 325 324 322 322 324 324 323 322 321 322 321 319 317 317 318 318 319 319 321 321 321 321 320 319 319 318 318 317 315 315 313 311 308 304 299 298 299 288
316 321 324 324 325 325 325 325 326 327 326 325 323 322 322 320 319 320 319 322 320 322 322 321 319 319 318 318 318 317 318 319 320 321 321 321 319 319 318 318 317 315 315 315 313 310 308 302 300 292 286 287
318 318 319 321 323 324 323 323 323 324 324 323 321 319 318 316 314 314 315 318 316 321 317 317 317 318 318 318 318 316 318 318 319 321 321 320 319 318 318 318 316 314 314 314 312 309 305 301 291 289 288 286
306 312 319 320 319 317 319 321 321 318 315 316 312 316 314 311 310 311 311 313 315 315 315 313 316 317 318 318 318 317 318 318 319 320 320 320 319 317 319 317 311 311 313 313 310 307 305 294 288 287 285 282
302 304 307 315 318 316 319 315 314 314 312 311 311 311 309 310 311 309 309 311 312 312 314 312 315 315 317 317 317 317 318 319 318 319 319 319 318 317 319 310 301 302 302 306 309 307 297 288 287 284 282 282
300 301 302 304 310 315 315 315 314 314 313 312 311 312 310 309 309 310 308 313 313 312 312 312 314 315 316 316 317 317 317 318 318 318 319 319 318 317 305 299 298 296 294 299 297 293 290 289 285 284 283 284
298 300 300 301 302 305 312 314 313 314 313 313 312 312 312 309 309 309 309 308 308 309 308 308 309 310 310 309 308 312 309 309 310 314 309 312 313 302 299 297 295 295 293 292 291 289 288 288 286 284 286 280
297 298 298 299 300 301 303 306 310 313 314 315 313 312 312 311 309 309 309 307 307 307 307 307 306 306 306 305 305 308 305 299 304 305 299 304 304 297 296 295 293 294 294 289 288 288 287 288 287 283 281 280
295 296 297 297 299 299 299 301 303 306 312 313 313 313 312 310 309 308 308 307 307 306 305 306 306 305 305 304 303 304 304 300 299 298 296 296 299 296 294 292 292 295 293 291 289 288 287 287 286 283 282 281
294 294 295 296 298 297 299 300 299 301 304 310 312 313 313 312 310 309 308 308 307 307 305 306 306 305 303 303 303 303 303 300 294 293 293 297 298 294 293 292 292 292 291 292 291 288 287 286 285 283 282 282
293 293 294 294 295 295 301 297 298 299 300 303 308 312 312 311 310 310 309 309 308 306 306 306 305 304 304 302 303 302 299 299 296 294 294 295 296 296 294 293 291 291 290 291 290 290 288 286 284 283 282 282
292 292 292 293 294 294 297 296 297 298 298 299 301 305 311 312 312 311 310 308 308 306 306 306 305 305 304 303 303 302 300 297 298 295 293 292 293 294 294 292 291 291 290 290 289 290 288 286 284 283 282 282
292 292 291 293 293 293 293 295 296 296 297 298 298 300 302 308 311 312 312 311 309 308 307 307 304 305 304 302 301 303 301 296 297 295 295 295 294 295 294 292 290 290 290 289 288 290 288 287 283 282 282 281
291 291 291 292 292 292 293 295 294 295 296 297 297 298 299 300 305 309 310 311 311 310 309 308 307 305 303 303 302 303 300 297 295 295 294 294 294 293 293 291 289 289 289 288 288 288 287 285 283 282 282 282
290 290 291 291 291 291 293 292 293 293 294 295 296 297 298 298 299 303 308 310 311 310 309 308 307 305 303 303 302 302 300 298 295 294 293 293 293 292 291 290 288 288 288 287 286 286 286 284 283 282 281 282
289 289 290 292 291 292 291 291 291 292 293 294 295 296 296 297 298 299 301 303 306 308 308 308 307 306 304 303 300 302 299 297 295 294 293 293 292 293 291 290 289 287 286 285 284 284 283 282 282 281 281 281
288 289 289 290 290 291 291 291 290 291 291 292 294 295 295 296 296 297 299 301 302 304 307 307 307 306 306 303 301 299 299 298 296 296 294 293 292 291 290 290 289 288 288 286 284 283 282 281 281 281 281 281
288 288 288 289 292 290 290 291 290 290 290 291 292 292 293 294 295 296 297 298 300 300 303 306 307 307 306 300 298 296 295 296 296 296 295 293 293 291 290 289 288 288 287 286 285 283 282 281 282 280 280 280
286 287 287 289 289 289 289 290 290 290 290 291 290 291 291 292 294 295 295 296 297 297 298 300 304 306 305 302 296 295 295 296 297 296 296 292 293 294 292 289 289 287 288 286 286 283 282 281 281 280 280 280
287 287 288 287 287 289 288 288 288 289 289 289 290 290 291 292 293 294 294 295 295 295 296 297 298 301 304 300 294 294 293 295 296 296 297 293 293 293 293 290 289 287 287 286 285 283 282 281 281 280 279 280
287 287 287 285 286 286 286 287 287 288 288 289 289 290 291 292 292 293 293 294 295 294 294 295 296 297 299 299 294 294 293 293 293 295 296 295 292 292 293 292 291 289 288 287 285 284 282 281 281 280 278 281
284 285 285 285 285 285 286 286 287 288 287 288 288 289 290 290 291 291 292 292 293 293 294 294 294 295 295 292 291 292 292 292 292 292 293 294 293 291 291 291 291 289 286 285 282 283 280 279 279 278 280 279
283 283 283 282 284 284 285 286 287 287 287 287 287 288 288 289 289 290 291 292 292 292 293 293 294 294 292 291 290 290 292 293 292 292 292 293 294 291 290 289 287 286 286 283 280 280 279 278 277 280 280 279
284 284 284 284 284 284 283 284 285 285 286 287 288 287 287 288 288 289 289 291 291 292 291 291 292 292 291 290 290 289 289 292 292 291 290 290 290 292 291 290 287 284 285 282 284 280 277 277 277 279 280 279
284 285 286 286 285 285 283 283 285 285 286 287 287 286 286 287 287 288 289 290 291 291 291 291 291 291 290 288 289 288 288 288 289 290 290 290 289 289 289 291 287 285 289 285 285 281 279 276 277 278 278 279
286 287 288 288 287 286 284 283 285 285 285 285 285 285 286 286 286 288 289 291 291 291 290 290 290 290 288 288 288 287 288 288 289 288 289 289 289 288 287 287 285 285 287 288 283 278 280 278 277 276 276 278
286 287 286 286 285 284 283 281 280 280 281 283 285 286 285 286 287 287 288 290 291 292 290 290 289 289 289 287 287 288 287 288 288 289 289 289 289 289 287 286 286 284 285 286 287 285 278 275 276 278 279 278
286 286 285 284 283 282 282 281 280 280 281 282 282 283 286 287 287 287 286 287 289 290 290 289 289 289 288 287 288 288 287 287 287 288 288 288 289 289 289 288 286 283 284 285 285 287 286 285 281 279 277 278
286 284 284 283 283 282 282 281 281 282 282 282 283 284 285 287 288 288 286 286 287 287 288 289 289 288 288 287 287 288 288 287 287 287 287 288 288 288 289 289 286 285 283 284 284 285 285 284 281 281 279 278

ECMWFFLT2_sfc_thetae_018.txt.gz
Theta_e
317 323 324 325 325 325 325 325 325 324 324 323 323 324 324 324 325 326 326 324 324 324 323 323 322 321 321 320 320 320 321 322 323 323 323 323 322 323 323 322 321 320 317 318 316 312 308 305 302 300 301 288
313 314 317 322 323 325 328 327 326 325 325 324 324 323 326 327 325 326 327 326 324 323 323 323 322 322 321 320 320 320 320 321 322 323 323 323 322 322 322 323 322 320 318 318 316 312 307 304 302 300 300 286
305 311 313 315 319 322 322 325 327 326 326 326 325 326 326 324 322 322 325 326 326 323 323 324 324 321 321 320 321 320 320 320 321 323 323 323 322 321 321 323 321 320 318 318 316 311 307 303 302 301 296 286
302 306 309 311 314 318 320 321 321 323 326 327 324 323 322 319 317 318 319 324 322 325 324 323 321 321 320 321 320 320 319 321 321 322 322 322 322 322 320 321 321 319 318 317 315 310 305 302 303 293 285 285
301 302 306 306 308 311 314 317 320 320 319 318 320 319 317 316 313 312 313 317 317 322 318 317 319 322 320 320 320 319 319 319 320 320 322 322 321 320 321 321 320 320 317 316 314 309 304 303 291 287 286 285
299 299 302 301 302 305 308 311 315 315 314 314 312 314 314 309 309 310 310 312 314 314 315 315 317 319 321 320 319 319 319 321 319 320 321 322 321 320 320 320 313 316 316 315 312 307 304 292 287 287 285 284
297 296 298 299 300 301 305 306 307 308 312 313 313 311 310 310 309 309 309 311 312 313 314 313 316 316 322 320 319 320 320 321 319 319 320 321 320 320 320 311 308 308 309 310 310 306 293 287 287 285 283 284
294 295 296 296 297 298 299 301 303 304 305 308 312 313 312 310 309 308 309 312 312 313 312 313 315 316 318 318 318 318 317 318 320 320 320 320 320 319 314 305 305 305 304 306 301 290 287 287 285 284 283 283
293 294 294 294 296 296 297 298 299 301 301 304 306 310 312 312 310 309 308 307 309 310 310 308 310 312 312 311 309 314 308 308 307 312 308 309 315 305 306 303 302 302 302 300 294 287 285 285 284 284 285 281
293 293 292 292 294 294 294 296 296 298 299 300 302 306 309 311 310 309 308 306 306 307 307 307 308 308 307 307 307 309 306 301 299 300 299 302 302 302 302 301 297 300 300 294 291 287 285 285 284 284 282 281
291 291 292 292 294 293 292 294 293 295 296 298 300 301 305 308 310 310 308 307 306 306 306 306 306 306 306 305 305 305 305 302 301 299 297 297 297 298 296 294 295 298 296 295 290 288 286 284 284 283 282 281
290 290 291 292 294 292 294 293 292 293 294 296 297 299 301 305 307 309 309 308 307 306 304 305 306 305 304 304 304 305 305 302 297 296 293 292 296 295 294 295 292 293 293 293 291 288 287 285 284 283 282 282
289 289 290 290 291 290 297 291 291 292 293 293 294 296 299 301 302 306 308 309 310 307 305 304 304 303 304 303 303 303 302 302 299 297 296 294 292 295 295 294 292 291 291 292 290 290 287 286 284 283 282 282
288 289 289 289 290 290 294 290 291 292 292 292 292 293 295 297 300 302 305 307 309 309 307 305 305 303 303 302 303 303 302 300 301 298 295 293 292 294 295 292 292 291 290 289 289 289 288 287 286 284 283 282
288 289 288 290 290 290 290 290 292 291 291 291 292 292 293 294 297 299 302 304 307 309 309 307 306 305 304 302 301 303 303 300 301 298 298 296 294 295 294 292 291 291 290 290 288 290 288 288 286 284 283 282
288 288 288 289 289 289 290 291 290 290 290 292 291 292 292 292 293 296 298 300 302 304 307 308 308 307 304 304 303 303 302 300 299 298 297 295 295 294 294 291 290 290 290 290 289 289 288 287 285 284 282 282
287 287 287 287 288 289 291 290 289 289 289 290 291 291 291 292 292 293 294 296 298 300 304 305 306 307 306 305 305 299 301 299 297 297 295 294 295 293 293 293 290 290 290 290 289 288 288 286 285 284 282 282
287 287 287 289 288 289 289 288 288 289 289 289 290 290 290 291 291 292 292 293 295 297 299 301 304 306 306 305 303 303 299 295 294 296 297 296 294 294 293 292 290 289 288 289 288 288 288 286 286 284 282 281
286 288 287 287 287 287 288 289 288 287 288 288 288 289 288 289 290 291 292 292 293 293 295 297 299 302 305 306 303 298 299 297 295 293 294 295 295 294 293 293 291 290 290 289 288 287 286 285 285 283 283 282
285 285 286 286 289 289 287 287 288 286 287 288 287 287 287 288 289 291 291 291 291 292 292 293 295 297 300 302 299 296 296 297 297 296 296 293 295 294 293 292 291 291 291 289 289 287 286 285 285 282 282 281
284 285 285 286 287 287 287 287 286 286 287 287 287 286 287 287 289 289 290 290 290 290 291 292 292 294 296 298 296 294 294 295 298 298 298 295 294 296 295 293 292 289 290 289 289 286 285 284 284 282 282 282
284 284 285 285 285 288 288 287 287 287 287 286 286 286 286 287 288 289 289 289 289 288 290 290 291 292 294 294 292 293 293 295 295 296 297 295 294 294 294 293 293 291 289 289 288 285 284 283 282 282 281 281
284 284 284 283 284 285 285 286 286 286 286 286 286 286 286 287 288 288 287 287 288 287 288 288 289 290 291 291 291 291 291 292 293 293 293 295 294 294 295 294 294 294 291 290 289 287 284 283 282 281 280 282
281 282 283 283 283 283 284 285 286 286 285 286 285 287 287 287 287 287 287 286 287 287 287 288 289 289 288 287 287 289 290 291 291 291 292 293 294 293 294 295 294 294 292 291 289 288 284 282 281 280 281 280
282 281 282 281 282 282 283 284 285 285 285 285 286 286 286 287 287 286 286 286 286 286 288 289 288 287 285 286 287 287 289 290 290 290 291 292 294 293 292 293 292 293 292 290 286 283 280 279 279 281 280 279
282 281 282 282 281 282 283 283 283 283 284 285 286 286 286 287 287 286 286 286 286 287 287 288 287 285 285 284 285 285 287 291 292 290 290 290 290 290 292 292 291 291 290 287 289 286 282 279 278 279 280 278
282 282 283 283 283 284 283 284 284 284 285 286 285 285 285 286 286 286 285 285 286 287 288 287 287 287 285 284 285 284 285 286 288 289 289 289 289 290 288 291 290 288 290 289 290 289 285 282 281 281 279 278
283 283 285 284 284 284 283 283 285 284 283 282 282 283 284 284 285 285 285 286 286 288 287 287 287 287 285 285 284 284 283 284 286 288 289 288 289 289 289 288 288 289 289 290 289 283 286 286 284 283 281 280
282 283 282 282 282 282 282 282 282 281 282 283 283 284 282 284 284 285 285 286 286 287 286 287 287 287 287 286 284 283 283 283 285 287 288 289 288 288 288 289 288 287 288 289 290 289 284 278 281 284 287 283
283 282 281 281 280 280 280 280 280 280 280 281 281 282 283 283 283 284 285 285 286 285 286 286 287 286 286 286 285 285 283 284 284 285 286 288 288 288 288 288 289 287 286 288 289 289 290 289 286 285 281 282
283 281 281 281 281 281 280 280 281 281 281 281 282 282 282 283 284 284 284 286 286 285 285 285 285 285 285 285 284 285 283 283 284 286 286 287 287 287 288 288 286 287 286 285 286 288 289 288 285 284 282 282

ECMWFFLT2_sfc_thetae_021.txt.gz
Theta_e
312 313 314 315 316 317 319 321 323 324 324 323 324 325 326 325 326 325 322 323 324 324 323 323 323 323 323 322 322 322 322 322 322 323 325 324 323 323 326 323 322 322 319 316 313 310 308 306 303 302 302 289
307 309 311 312 313 313 314 315 317 319 320 320 321 321 321 320 324 324 326 325 322 323 323 322 323 322 322 322 322 321 321 322 322 323 323 323 324 323 322 322 322 321 320 317 314 311 308 306 304 302 300 287
298 306 306 308 309 310 311 312 314 314 314 316 316 316 316 316 316 320 322 324 326 324 323 323 323 321 322 322 321 321 321 321 322 322 322 324 324 322 323 322 322 321 320 318 315 312 309 306 304 303 297 287
296 301 303 304 305 306 308 309 310 310 311 312 310 311 312 313 313 314 315 322 320 323 325 323 322 325 323 322 321 321 320 321 321 322 322 322 324 322 321 322 321 321 320 319 315 312 309 306 305 296 286 285
295 297 300 299 302 303 304 305 306 307 307 307 306 307 309 310 309 310 311 312 313 321 316 317 319 324 322 323 321 320 320 320 320 321 321 321 322 322 321 321 321 321 320 319 315 311 307 306 294 287 286 285
295 295 296 294 295 297 298 301 302 302 302 305 302 305 305 306 307 308 309 310 312 312 312 313 316 319 323 322 322 321 320 321 320 320 321 321 321 321 321 322 318 317 319 317 313 309 306 295 287 286 285 286
293 293 293 293 294 295 297 298 298 297 299 301 302 303 303 305 306 307 308 309 311 311 313 313 315 316 321 322 322 322 321 321 320 320 319 320 320 322 321 316 309 313 313 313 311 308 298 287 286 285 284 285
291 292 292 292 294 294 293 294 294 295 296 297 299 301 302 305 304 306 307 310 310 310 310 311 313 315 318 319 320 319 319 320 321 322 321 321 321 321 317 308 308 310 310 308 302 296 289 287 286 285 284 285
290 290 290 291 293 293 292 294 293 293 294 295 296 298 299 302 303 304 306 306 307 307 308 308 308 309 311 312 312 315 310 309 309 313 305 304 308 310 310 306 307 307 306 301 295 288 286 285 285 284 285 283
291 289 289 289 291 292 291 294 292 292 293 293 294 295 297 298 299 302 303 304 305 306 307 307 306 307 307 307 308 311 309 304 304 304 301 300 300 304 307 306 305 306 304 295 289 286 284 285 285 283 282 282
288 287 288 288 291 290 289 292 290 291 291 292 293 294 295 295 296 298 300 302 303 304 306 306 306 306 305 305 305 306 307 304 304 302 301 296 297 301 299 298 302 305 301 295 289 286 285 284 284 283 282 282
287 287 288 289 290 288 292 292 289 289 290 291 290 292 293 295 294 295 296 298 300 302 304 305 306 305 305 304 304 304 304 303 301 301 299 293 295 296 298 299 299 298 298 295 290 286 285 284 283 283 282 282
286 287 287 287 287 287 294 289 289 289 290 289 290 290 291 292 292 293 294 295 297 300 301 302 304 306 306 304 304 303 303 302 301 299 298 297 294 297 298 297 296 295 294 295 290 288 285 284 283 283 282 281
286 287 286 286 286 287 291 287 289 290 288 289 288 289 290 290 291 291 292 293 295 296 297 299 301 303 305 305 305 304 303 302 301 300 295 294 292 294 297 295 295 295 294 293 290 289 286 284 283 283 283 282
285 286 286 287 286 286 286 287 290 289 288 288 288 289 288 289 289 290 290 291 292 293 295 296 297 299 301 303 304 305 303 301 301 298 299 297 295 296 296 295 295 295 294 293 290 290 287 285 283 282 282 282
285 286 286 287 285 286 286 289 288 288 288 290 288 288 288 288 288 291 289 290 291 292 292 293 294 296 298 300 302 304 303 303 299 299 298 295 295 294 295 293 292 293 293 293 291 290 288 286 284 283 282 282
284 285 285 285 285 286 288 287 287 287 288 287 287 288 287 287 287 289 288 289 290 292 291 292 292 293 295 297 299 300 301 300 299 296 295 295 294 292 291 292 291 292 293 294 291 290 289 287 285 284 282 282
283 284 284 286 284 286 286 286 287 288 288 288 288 287 286 287 287 288 287 288 289 289 289 290 290 291 292 294 295 297 298 297 295 296 295 296 292 294 292 292 291 291 291 291 290 290 290 288 287 285 283 283
283 284 283 283 284 285 285 286 286 286 286 286 286 287 286 286 287 287 287 287 288 288 288 288 288 289 290 292 292 292 294 295 294 294 295 298 293 293 292 292 290 291 292 291 289 289 289 288 287 286 284 283
282 282 282 283 287 284 284 285 285 285 286 286 286 286 286 285 286 287 286 287 287 287 287 287 287 288 289 289 289 289 290 293 294 296 297 295 295 294 292 292 291 291 292 291 291 289 289 289 288 286 285 283
281 281 282 282 283 283 284 284 284 285 285 285 285 286 285 285 286 286 286 286 286 286 286 286 287 287 288 289 288 287 286 289 293 295 296 297 293 295 295 293 292 291 291 292 291 290 288 288 288 286 285 284
281 281 282 281 282 285 283 283 284 284 284 284 285 285 285 285 286 287 286 286 286 285 286 286 286 286 287 287 285 285 284 288 287 290 292 292 293 292 293 293 293 293 292 293 292 290 289 287 287 287 286 285
282 281 280 279 281 281 282 283 283 284 284 284 284 284 285 286 286 287 286 286 286 285 285 284 285 286 286 286 284 283 284 285 285 287 287 289 291 293 292 293 294 295 294 294 293 291 289 288 287 287 286 286
279 279 280 280 280 280 282 282 284 284 283 284 283 285 285 285 285 285 286 285 285 284 285 284 284 286 284 283 283 283 283 284 285 285 287 288 290 290 291 292 293 293 293 293 292 291 289 287 286 285 285 283
279 279 278 278 279 280 280 282 284 283 283 283 283 284 284 285 285 285 285 286 285 284 285 286 284 285 283 283 284 283 284 283 283 284 285 288 291 289 289 290 291 292 291 291 289 287 287 285 284 285 283 282
280 279 280 280 280 280 280 281 281 281 282 283 284 284 284 284 284 284 284 285 285 285 284 284 284 284 284 283 283 283 284 284 286 284 284 287 287 289 289 289 289 291 290 289 289 287 286 284 283 283 283 280
281 280 281 280 280 280 280 281 282 282 282 283 283 283 283 283 283 283 283 284 284 284 284 284 284 284 284 283 284 283 283 282 282 282 283 284 286 287 288 289 290 289 291 289 291 291 289 286 284 285 282 281
283 281 283 281 281 281 280 280 283 282 282 281 281 281 282 282 282 283 283 283 283 284 284 284 284 284 283 283 283 283 283 282 282 282 282 283 285 286 286 287 287 289 290 291 290 286 287 287 287 287 286 285
281 282 281 280 280 280 279 279 278 278 279 281 282 283 280 281 282 282 282 283 283 284 284 284 284 283 283 283 283 283 282 282 283 283 283 284 284 286 286 286 286 287 287 288 291 290 285 282 284 286 290 288
281 281 280 279 278 277 278 278 278 278 278 280 280 280 281 281 281 282 282 282 283 283 284 283 283 282 283 283 283 283 283 283 282 282 283 284 285 285 286 287 287 286 288 287 289 289 290 288 285 286 285 287
282 280 280 279 279 278 278 277 278 280 280 280 280 280 279 280 281 281 282 282 283 282 283 283 282 281 282 282 282 284 282 282 282 283 283 284 284 285 287 286 285 286 286 286 287 288 288 288 286 285 284 285

ECMWFFLT2_sfc_thetae_024.txt.gz
Theta_e
306 306 307 309 310 310 310 310 311 312 313 315 316 318 318 318 317 319 320 323 324 325 323 324 324 325 325 325 322 322 322 322 322 322 322 323 324 325 324 324 322 322 320 318 315 312 310 309 308 307 303 292
303 304 305 305 306 307 308 307 308 309 310 312 312 313 313 313 313 315 316 318 320 322 322 322 323 322 325 325 322 322 322 322 322 323 322 322 323 323 324 323 322 322 321 317 313 310 308 308 308 307 304 290
295 301 302 303 304 304 305 305 306 306 307 308 308 309 309 309 309 310 312 313 315 318 319 318 319 322 322 323 323 323 322 322 322 323 322 322 322 324 323 324 323 322 321 317 313 310 308 308 308 308 300 291
293 297 299 301 302 302 302 303 303 304 305 304 305 305 306 305 304 306 306 310 309 313 314 314 316 320 322 322 322 322 321 321 322 322 322 322 321 322 323 322 322 321 321 319 314 311 309 307 307 298 288 288
293 294 296 296 299 300 301 301 301 301 301 301 301 302 303 302 301 301 302 304 305 309 308 311 312 316 319 322 322 321 323 322 321 322 322 322 322 322 322 321 321 319 320 319 314 311 309 307 297 290 290 289
293 292 293 291 292 294 296 298 298 296 296 298 296 300 299 299 300 300 300 302 305 305 307 307 311 312 316 318 320 321 320 321 322 321 322 322 322 322 323 321 316 317 319 318 314 311 308 300 289 288 289 290
292 291 291 290 291 292 295 296 295 294 295 294 295 296 297 298 298 299 300 301 303 304 306 307 309 310 313 314 316 316 316 318 321 322 321 322 322 323 323 317 311 308 311 315 314 310 303 290 287 287 288 290
288 289 289 289 290 290 291 293 293 293 294 294 294 295 296 296 297 298 299 301 302 302 302 304 307 308 308 309 310 311 312 313 315 316 320 322 321 320 316 310 309 311 310 311 307 302 293 288 286 286 287 290
287 288 287 288 288 288 289 292 291 292 293 293 294 294 295 295 296 297 298 298 298 298 300 302 302 304 304 305 305 308 306 307 307 308 307 309 307 303 307 306 306 309 309 306 301 295 289 287 286 285 287 286
288 287 286 287 288 287 287 290 289 290 292 292 293 293 294 294 294 295 296 297 297 297 298 299 299 302 303 303 303 305 304 304 303 303 301 302 301 301 304 305 305 307 307 300 295 291 287 286 285 284 284 284
285 285 286 286 288 287 286 288 287 287 289 290 291 293 293 293 292 293 294 295 297 297 298 297 298 300 301 302 302 304 304 302 302 301 302 299 299 299 299 300 303 306 305 300 295 290 287 285 285 284 283 283
284 284 285 287 288 285 290 288 286 287 289 289 288 291 291 294 292 292 292 293 294 297 297 297 298 298 299 300 301 303 303 302 301 301 300 299 299 298 298 299 301 302 301 298 295 290 288 286 286 285 284 284
283 284 284 285 285 284 291 285 285 287 288 288 288 288 289 291 289 289 291 291 293 295 295 297 297 297 298 299 300 301 301 301 300 300 300 299 297 298 298 298 296 298 298 297 294 291 288 286 286 285 283 283
283 283 283 284 284 284 288 284 286 287 287 287 287 287 288 288 289 287 288 289 290 291 293 295 296 297 296 297 298 300 298 299 299 298 298 299 298 296 297 294 294 294 296 294 291 290 287 286 285 285 283 283
283 284 283 285 283 283 283 284 286 286 286 286 287 288 288 287 287 290 287 287 287 288 290 291 292 294 296 295 296 298 297 297 297 297 297 298 298 297 298 294 292 293 292 294 290 290 287 286 284 284 283 282
283 283 282 284 283 283 284 286 284 284 285 287 286 287 287 287 286 289 287 287 287 287 288 288 289 290 292 293 295 296 295 296 295 296 296 296 297 297 294 292 291 291 291 294 292 290 288 286 285 284 284 282
283 282 283 283 283 283 286 283 284 284 285 285 286 287 286 286 286 288 287 286 287 289 287 287 287 288 289 290 293 293 294 294 293 293 293 294 295 293 293 292 292 294 292 295 294 290 288 286 285 284 283 282
282 282 283 286 282 284 283 282 282 284 284 285 285 285 285 285 285 287 286 286 286 287 286 287 286 286 286 288 288 291 292 291 290 291 292 292 291 293 292 292 292 290 291 292 293 291 290 287 286 284 282 282
283 284 282 281 281 282 282 283 282 282 283 283 284 285 284 285 285 286 285 285 285 286 286 286 285 285 286 287 286 286 287 289 289 290 291 294 291 293 290 290 292 291 292 292 292 291 290 288 286 284 283 282
282 281 281 281 285 283 281 282 282 282 283 283 283 284 284 284 285 286 285 285 285 285 285 285 285 285 286 285 285 284 284 286 287 289 290 290 292 292 291 290 290 290 291 292 292 291 291 289 288 285 284 282
281 281 281 281 282 281 282 281 281 282 283 283 283 283 283 283 285 285 284 285 285 284 285 285 285 284 285 285 283 284 283 283 285 287 288 288 289 291 291 290 290 290 291 291 292 292 291 290 289 287 285 284
281 282 282 281 280 284 282 281 282 282 282 282 282 282 282 283 284 286 284 284 284 283 284 285 284 284 284 285 283 282 282 283 283 283 284 285 286 287 288 288 289 290 291 292 292 291 291 291 290 289 287 286
281 281 281 281 281 280 281 282 282 282 282 282 282 282 282 283 284 284 284 284 284 283 283 283 283 283 283 284 282 281 282 281 283 285 283 284 284 287 288 287 289 290 291 294 294 292 291 291 290 290 289 288
280 280 280 280 281 281 282 282 283 283 282 282 281 283 283 283 283 283 284 283 284 283 283 282 283 283 281 282 282 282 282 282 282 282 282 282 283 284 285 287 288 289 290 290 291 292 291 290 290 289 289 288
279 278 279 279 279 280 280 281 283 283 282 281 282 283 283 283 283 283 282 284 283 283 284 284 282 282 282 282 283 282 283 283 283 282 282 283 285 285 283 284 286 288 289 289 288 289 290 288 288 289 289 287
279 279 279 279 279 281 281 280 280 279 280 281 283 282 283 283 283 282 282 283 282 283 282 282 282 281 281 281 281 282 283 283 285 284 283 282 282 283 284 283 286 287 289 287 287 288 286 286 284 285 286 286
277 278 279 280 280 281 280 281 281 281 281 281 281 281 281 282 282 282 281 281 282 282 282 282 281 281 282 281 282 282 281 282 282 282 282 282 282 281 282 284 285 285 287 287 288 288 288 285 285 285 283 285
277 278 280 280 280 280 280 280 282 281 281 280 279 279 280 281 281 282 281 281 281 282 281 281 281 282 281 281 282 281 281 281 281 282 281 281 282 282 281 282 282 286 287 288 287 284 286 286 286 285 284 284
276 278 278 278 278 279 279 280 279 278 278 279 280 281 279 280 281 281 280 280 280 281 281 281 281 281 281 281 281 281 280 281 281 282 281 282 282 281 281 281 281 283 285 287 289 287 286 283 283 285 288 287
277 276 275 274 273 273 274 274 276 276 277 278 277 277 279 280 281 281 280 280 280 281 282 280 280 279 280 281 281 281 280 281 281 281 281 282 282 282 282 282 281 280 285 285 287 289 289 287 284 285 285 287
277 274 273 273 272 272 272 272 274 276 277 277 277 278 278 279 280 280 280 280 280 280 280 280 279 279 279 279 279 282 281 280 280 281 281 282 281 282 283 282 281 282 282 283 286 288 287 288 287 285 284 284

ECMWFFLT2_sfc_thetae_027.txt.gz
Theta_e
304 304 305 307 307 307 307 307 308 309 309 310 310 310 311 312 312 315 316 319 320 321 321 322 325 325 325 326 326 326 325 327 323 322 322 324 326 326 326 324 324 324 322 321 319 317 315 314 313 311 308 308
302 301 302 303 304 305 305 305 305 306 307 308 307 308 307 307 307 309 312 314 316 317 317 318 322 324 323 323 324 325 325 326 325 324 322 322 324 325 325 324 324 323 322 321 319 316 315 313 313 312 310 308
295 299 299 301 302 303 303 303 304 304 304 304 305 305 305 305 304 305 307 309 312 314 315 315 316 321 324 324 324 324 324 325 326 324 325 322 322 323 325 325 324 324 323 321 318 316 315 313 312 313 310 309
293 297 297 298 299 300 301 301 302 302 302 302 302 302 302 302 300 301 302 306 305 310 311 311 313 317 320 321 322 322 321 323 324 324 324 324 322 323 325 325 323 322 322 322 317 314 314 312 312 311 307 308
292 293 295 295 296 298 299 299 300 300 300 300 299 299 300 299 299 299 299 301 302 305 305 308 310 314 316 317 317 317 317 318 321 323 322 323 322 323 322 325 322 321 322 321 316 312 312 312 309 306 305 307
292 292 293 291 291 293 294 296 297 296 296 297 296 298 296 296 297 297 298 299 301 301 303 304 307 309 312 314 314 315 314 314 317 319 320 320 320 320 319 321 324 322 321 319 314 312 311 309 303 303 304 305
291 290 291 291 291 291 294 293 293 293 295 295 295 296 295 296 296 297 297 297 299 300 301 302 305 306 309 311 312 311 311 312 314 315 316 315 316 316 316 322 322 322 323 319 314 311 308 298 297 299 302 304
290 290 290 290 291 290 291 291 291 292 293 294 294 295 295 295 296 296 296 297 298 299 298 300 302 304 305 306 307 308 307 308 310 311 311 311 311 310 312 316 318 319 320 318 314 308 301 294 293 296 300 303
290 290 289 290 290 289 291 290 290 291 292 293 293 294 294 295 295 295 295 295 295 295 296 298 299 301 302 304 305 306 305 306 306 306 306 306 306 306 308 312 312 317 317 317 311 306 298 292 291 293 298 300
289 289 288 289 290 289 291 290 289 290 291 291 292 293 293 294 293 293 293 294 294 295 296 296 297 298 301 302 303 305 305 304 304 304 303 303 303 303 303 306 310 312 316 313 309 303 295 291 291 291 295 297
288 288 288 289 290 289 291 289 289 289 291 291 291 292 293 293 292 292 292 293 294 294 296 296 296 297 298 299 300 302 302 302 302 303 303 302 301 302 302 302 304 309 311 311 308 302 296 293 290 290 293 295
287 288 288 289 289 288 291 288 288 289 290 291 291 292 292 292 292 291 291 291 292 295 295 296 297 297 297 298 299 300 300 300 301 301 301 302 301 301 301 301 301 303 307 306 306 301 296 293 291 291 292 293
287 287 287 288 288 287 291 288 288 289 290 290 290 290 291 292 291 291 291 291 291 294 294 296 296 297 296 296 296 298 298 299 298 298 299 300 300 301 301 300 298 300 303 305 303 300 297 293 292 291 290 291
286 287 286 288 288 287 289 288 288 289 289 289 290 290 290 291 291 290 290 290 290 291 292 295 296 296 296 295 296 297 295 298 298 297 298 299 299 300 301 297 297 298 299 303 300 299 297 294 291 292 291 292
285 286 285 287 287 287 287 288 288 288 288 289 289 290 290 290 290 290 290 290 290 290 291 293 294 295 296 296 296 296 295 296 296 297 297 298 298 299 300 299 296 296 295 300 298 298 296 294 293 292 292 292
285 285 285 286 286 287 287 288 288 288 288 289 289 290 289 289 289 290 290 290 289 290 290 291 293 293 294 294 296 296 295 295 295 295 295 296 298 299 299 297 293 294 294 298 296 297 295 293 292 291 292 291
284 284 284 285 285 286 288 287 287 287 288 288 289 289 289 289 289 290 289 289 289 290 290 290 291 292 293 294 294 295 295 296 295 294 293 294 296 296 297 296 296 297 296 298 299 298 295 293 291 290 290 290
283 284 284 285 284 285 286 286 286 287 288 288 288 288 288 288 289 289 289 289 289 289 289 290 290 291 291 292 293 294 294 295 295 294 294 293 293 294 294 295 296 295 294 294 297 297 296 294 292 290 289 289
282 283 283 283 284 285 285 286 286 286 287 287 288 288 288 288 288 288 289 289 288 288 288 288 289 289 290 291 292 293 293 293 293 294 294 295 293 294 291 291 293 294 293 294 293 293 293 294 293 290 288 288
282 282 283 283 285 284 285 285 285 286 287 287 287 287 287 288 288 288 288 288 288 287 288 287 288 289 290 290 291 292 292 292 293 294 293 294 294 292 291 292 292 292 292 292 292 293 293 293 293 291 289 287
282 282 282 282 283 283 284 284 285 285 286 287 287 287 286 287 287 288 288 288 288 287 287 287 287 288 289 289 290 291 291 291 293 292 293 294 293 293 292 291 290 290 291 292 293 292 292 293 292 291 290 288
281 281 281 281 282 283 282 284 285 285 286 285 286 286 286 286 286 287 287 287 287 287 287 287 287 288 288 289 289 290 290 291 291 291 291 291 292 293 292 292 291 290 291 293 294 293 293 292 291 291 291 289
280 280 280 280 280 281 282 283 283 284 284 285 285 285 286 286 286 286 287 287 287 286 286 287 287 287 287 288 288 288 289 290 290 291 290 290 291 291 291 292 292 292 292 292 294 294 294 293 291 291 291 291
278 278 278 278 279 280 281 281 282 283 283 284 284 285 285 286 286 286 286 286 286 286 286 286 286 286 287 288 288 288 288 288 289 289 289 289 289 289 291 292 292 292 292 291 291 291 292 293 293 292 292 290
277 276 277 278 278 277 278 278 279 279 281 282 283 284 285 285 285 286 285 285 285 285 285 286 286 286 286 287 287 287 287 288 288 288 288 289 290 289 289 290 292 292 291 289 289 292 291 291 291 292 292 291
277 277 277 277 277 276 276 276 276 277 279 281 282 283 284 284 285 285 284 284 285 285 285 284 285 285 286 286 286 287 287 287 287 288 288 288 288 290 289 288 292 293 292 287 287 288 289 291 289 289 290 290
277 277 278 278 276 276 275 277 277 277 278 279 280 282 283 284 284 284 284 284 284 284 284 284 284 285 285 286 286 286 286 286 286 287 287 287 287 287 288 289 291 291 292 287 290 290 289 287 288 288 286 288
278 278 279 278 277 276 276 275 277 277 277 277 278 278 280 283 283 282 283 283 283 283 284 284 284 285 285 285 286 285 285 285 285 286 286 286 286 286 285 286 288 292 291 290 289 283 284 286 289 286 288 287
277 278 277 276 276 276 276 276 276 275 275 276 277 277 278 278 280 280 280 281 282 283 283 284 284 284 284 285 286 286 285 285 285 286 286 286 285 285 284 285 286 289 290 290 292 287 284 284 284 285 290 289
278 276 275 274 273 272 273 272 273 273 273 274 275 276 278 278 278 279 279 280 281 282 283 283 284 284 284 284 284 284 284 285 285 285 285 285 285 285 285 284 285 285 288 290 291 291 291 289 285 286 286 287
277 274 274 273 273 273 273 272 273 274 275 275 276 277 277 277 278 278 278 278 280 281 282 283 284 283 282 282 282 282 283 283 283 284 284 285 285 284 285 285 282 283 284 287 288 289 290 290 290 289 285 282

ECMWFFLT2_sfc_thetae_030.txt.gz
Theta_e
303 304 305 306 307 307 307 308 308 307 307 307 307 307 307 307 307 309 310 313 315 317 320 322 324 325 325 325 325 325 324 324 325 325 325 326 324 324 325 323 326 326 324 322 320 318 318 318 316 315 318 318
300 301 302 303 303 304 305 305 305 306 306 305 305 304 303 303 303 305 307 308 310 312 314 316 318 320 321 322 324 324 325 324 324 323 324 324 324 324 324 324 324 325 324 322 320 318 318 317 315 315 316 317
295 299 299 300 301 301 301 303 304 304 303 303 302 302 301 301 301 302 303 305 307 308 309 310 313 317 316 316 317 318 321 323 324 323 323 324 324 324 323 324 325 325 325 322 321 318 317 316 315 314 315 316
293 296 297 298 299 299 299 300 300 301 301 301 300 300 300 299 298 299 299 301 300 305 306 305 307 312 316 316 314 313 315 317 321 323 323 323 322 321 321 321 323 324 325 323 321 319 317 316 315 313 314 315
293 293 295 295 296 297 297 298 298 299 298 299 298 298 298 297 296 297 297 296 296 301 301 303 305 308 310 312 313 313 314 314 314 315 319 319 319 319 319 320 321 322 324 323 321 319 317 315 312 313 314 315
293 294 294 293 293 293 293 296 296 296 295 297 296 297 296 295 295 296 295 296 297 297 297 299 303 305 306 308 310 310 311 311 314 315 313 316 317 317 318 319 323 322 322 322 321 317 316 312 309 312 314 314
293 293 293 293 292 293 293 294 294 294 295 295 295 295 295 295 295 295 295 295 297 296 297 297 300 302 303 305 308 308 308 308 310 312 314 315 315 315 316 320 324 323 324 322 316 314 314 311 309 308 311 313
292 293 292 292 292 293 292 292 292 293 295 295 295 294 295 294 295 295 295 296 296 296 294 295 297 299 301 302 303 305 305 306 307 307 309 310 311 312 313 316 319 321 324 320 316 314 312 309 305 304 306 310
291 292 292 293 292 292 292 292 292 292 293 294 295 295 294 295 294 294 293 294 294 294 295 295 295 295 296 298 299 302 302 302 304 305 306 306 307 308 309 312 315 319 319 321 317 315 312 306 304 302 303 305
291 291 291 292 292 292 292 292 292 292 293 293 294 294 294 294 293 293 293 293 293 294 294 295 294 294 294 295 297 298 299 300 301 302 304 305 305 306 306 308 311 315 317 317 319 315 310 304 302 301 302 303
290 290 290 291 292 292 292 292 292 292 292 293 293 293 293 293 292 292 292 292 293 293 294 293 294 293 294 294 295 297 297 298 299 299 301 302 303 304 306 306 307 311 314 316 315 315 309 303 301 301 302 303
289 289 290 290 291 291 292 292 291 291 292 293 292 293 292 293 292 292 291 292 292 293 293 293 294 294 294 294 294 295 297 297 297 297 299 300 301 301 304 306 305 306 310 311 312 310 308 304 300 301 302 301
288 289 289 289 289 290 292 291 291 292 292 292 292 292 292 293 291 291 291 291 291 292 293 294 295 294 294 294 294 294 294 296 296 296 297 299 299 301 302 302 305 305 305 308 308 307 306 304 301 300 301 301
287 288 288 288 289 289 290 290 291 292 292 292 292 291 292 292 291 291 291 291 291 291 292 293 294 294 293 293 293 294 293 294 295 295 295 296 298 298 300 301 302 304 303 305 303 306 304 302 299 299 300 301
286 287 287 288 288 289 289 290 291 291 291 292 292 292 292 291 291 291 291 291 291 291 291 292 293 293 293 293 294 294 293 294 296 296 295 295 296 297 298 299 301 303 304 304 303 303 302 301 298 296 298 301
285 286 286 287 287 288 289 289 289 290 291 291 291 292 291 291 291 291 290 291 291 291 291 291 292 292 293 293 294 293 293 294 295 297 296 296 297 297 297 297 299 301 303 304 304 302 301 301 298 297 296 296
284 284 284 285 285 286 287 288 288 289 290 291 291 291 291 291 291 291 290 290 290 291 290 290 291 292 292 293 294 295 294 294 294 294 295 294 297 296 296 296 296 300 301 302 303 302 299 298 298 297 296 295
283 283 283 284 284 285 285 286 287 288 290 290 290 291 291 291 291 290 290 290 290 290 290 290 290 291 291 293 294 294 294 293 293 293 293 293 294 294 295 294 295 295 296 299 301 301 301 301 300 299 297 296
282 282 282 282 283 283 285 285 285 286 288 289 289 289 289 290 290 290 290 290 289 289 290 289 289 290 290 292 293 292 293 293 294 294 293 293 292 292 295 294 294 294 294 295 297 299 300 299 300 299 298 298
282 282 282 282 283 282 284 284 285 285 286 287 287 288 288 289 290 290 289 289 289 288 289 289 289 289 291 291 291 292 293 293 292 293 294 294 293 291 291 294 293 294 293 294 295 298 299 299 298 298 298 297
283 282 282 282 282 282 283 283 284 284 285 286 286 286 286 287 288 289 289 289 289 288 288 288 289 290 290 291 290 291 292 292 293 292 293 292 293 293 290 290 291 293 292 292 293 295 298 298 298 297 297 297
281 282 282 282 282 283 282 282 282 282 283 283 284 285 285 286 287 288 289 289 288 288 288 288 288 289 290 290 290 290 291 291 292 292 292 291 292 292 291 290 290 289 291 293 293 293 295 296 297 297 297 297
282 282 282 282 282 282 282 282 281 281 281 282 282 282 284 285 286 286 287 288 288 287 287 287 287 288 289 290 289 289 289 290 291 291 292 292 291 292 292 291 291 291 290 291 292 292 293 295 296 297 297 297
281 281 281 280 281 281 281 281 281 281 280 281 281 282 282 283 284 285 285 287 288 287 287 286 287 287 288 289 288 288 288 288 289 289 290 291 291 291 291 292 291 291 290 290 290 292 293 294 295 296 297 297
280 280 280 280 280 279 280 280 280 280 280 281 281 281 281 282 282 284 284 286 287 286 286 286 286 287 287 288 288 288 288 288 289 289 290 290 291 290 290 289 291 291 291 289 288 290 290 293 295 295 296 296
280 281 280 279 279 279 279 279 279 279 280 280 280 281 281 281 282 282 284 284 286 285 285 285 285 285 286 287 287 287 288 288 288 289 289 290 289 291 289 288 290 290 291 288 286 285 286 288 292 296 296 295
280 280 281 280 280 280 279 280 280 280 280 280 280 280 281 281 281 281 281 282 283 283 284 284 284 285 285 287 287 286 286 287 287 288 288 289 288 288 290 290 291 290 290 286 287 288 287 285 285 289 293 294
281 281 281 281 281 280 280 279 280 280 280 280 280 279 280 280 281 281 281 282 281 281 282 282 283 284 284 285 287 286 285 286 286 287 288 288 289 289 286 287 288 291 290 289 286 282 283 284 285 282 286 291
281 281 281 281 281 280 279 279 279 279 278 279 279 279 279 279 280 280 280 280 281 281 281 281 282 283 284 284 286 286 285 285 286 287 288 288 288 287 286 286 287 289 290 290 290 286 284 282 282 283 287 292
281 280 279 278 277 276 276 276 276 276 276 277 276 277 278 279 279 278 278 279 280 280 280 281 281 282 283 283 285 286 285 285 286 286 286 287 287 287 287 286 286 286 289 290 290 290 288 286 283 284 289 287
281 279 278 277 277 276 275 275 276 277 277 276 277 278 277 277 278 278 277 278 279 280 280 280 281 281 282 283 285 285 285 284 285 285 286 287 286 286 287 287 284 284 286 288 289 290 290 290 289 288 285 282

ECMWFFLT2_sfc_thetae_033.txt.gz
Theta_e
303 304 304 305 305 306 306 307 307 308 308 308 308 307 307 306 306 306 307 308 310 310 312 313 318 320 320 321 323 326 326 324 325 324 324 324 326 325 325 325 327 326 325 324 322 320 320 320 319 319 319 320
301 301 302 302 303 303 303 304 304 305 306 306 306 305 304 304 304 304 305 305 307 307 307 309 312 315 317 318 319 320 322 323 325 324 324 324 325 325 324 324 325 325 325 324 322 320 320 320 320 318 318 318
297 299 300 300 300 301 301 302 302 303 303 303 302 302 302 301 301 301 303 304 304 305 305 304 305 310 312 313 314 315 318 319 319 321 322 323 322 322 323 323 324 324 324 324 322 320 319 320 318 317 316 316
296 297 298 298 299 299 299 300 300 301 300 300 300 300 299 299 298 298 298 302 298 301 302 301 301 306 310 311 311 311 312 314 316 317 317 318 319 320 321 321 323 323 324 324 322 320 320 318 317 314 313 315
295 296 297 297 297 297 297 298 298 299 298 298 297 298 298 297 296 296 296 296 296 299 296 299 300 303 306 308 309 309 309 309 311 313 316 315 316 318 319 321 321 322 323 323 322 321 319 317 314 312 313 314
295 295 296 295 294 295 294 296 296 296 296 297 295 297 295 294 295 295 295 295 297 296 297 297 299 300 302 305 306 306 307 309 309 308 308 312 314 314 316 318 321 322 322 322 321 319 318 316 313 312 313 314
293 293 294 295 294 295 295 295 294 294 295 295 295 295 295 295 294 295 294 295 296 296 297 296 298 298 300 301 303 304 304 305 308 308 308 311 313 314 313 314 319 320 325 323 320 318 317 314 312 310 312 315
292 292 293 293 294 294 294 294 294 294 294 294 295 295 295 294 294 294 294 296 296 297 296 298 297 297 297 297 299 301 300 302 303 305 307 308 309 310 310 310 312 317 320 323 321 317 316 314 312 310 311 313
291 292 291 292 292 293 293 294 293 293 293 294 294 294 293 294 294 294 294 294 294 294 294 296 295 295 294 295 296 298 296 297 299 300 301 303 305 307 309 308 309 311 317 320 319 318 317 316 312 310 309 309
291 291 290 291 291 291 292 293 293 293 293 293 294 294 293 292 292 293 293 293 293 293 294 294 294 295 294 294 294 296 295 296 297 297 298 300 301 306 306 308 307 309 311 316 318 319 316 315 310 308 307 308
290 289 290 290 290 290 290 292 292 292 293 293 294 294 294 292 291 291 292 292 292 292 293 293 294 294 294 294 293 293 294 295 295 296 296 298 299 301 306 306 307 307 308 311 315 316 316 311 308 307 307 308
288 289 289 289 290 290 291 291 290 291 292 294 293 294 293 293 292 291 290 291 291 291 292 292 293 295 294 294 294 294 293 294 294 294 295 296 297 296 299 301 306 306 307 307 310 314 314 311 307 306 305 306
287 288 288 288 288 288 291 290 289 291 292 292 293 294 294 293 291 291 291 291 291 291 290 291 292 293 293 294 294 294 293 293 293 293 293 294 295 296 297 298 301 302 306 307 307 309 311 310 307 306 306 305
286 286 286 287 287 287 289 288 289 290 291 291 292 293 293 293 292 291 291 291 291 291 291 291 291 291 292 292 293 294 293 293 293 293 293 293 294 295 296 296 298 299 301 306 306 307 307 308 307 306 304 305
285 285 285 286 286 287 287 287 288 289 290 291 292 292 293 293 292 292 291 291 291 291 291 291 290 291 291 291 293 294 293 294 294 294 293 293 293 293 294 295 296 297 298 300 306 306 305 305 304 303 303 302
284 284 285 285 285 285 286 286 286 287 288 289 291 292 292 292 292 292 291 291 291 291 290 290 291 291 291 291 292 293 294 293 294 293 294 294 294 294 294 294 294 296 297 298 300 305 305 304 303 302 300 300
283 284 284 284 284 285 285 285 285 286 287 288 289 290 291 291 291 291 291 290 290 290 290 290 290 290 291 291 291 292 294 294 294 294 294 293 294 293 293 292 293 295 295 296 298 301 304 304 302 301 300 299
283 283 283 284 284 284 284 284 284 285 286 287 287 288 289 289 290 290 290 291 290 290 289 289 289 290 290 291 292 292 292 292 293 293 293 292 293 292 292 292 291 292 292 294 296 296 299 302 304 303 301 299
283 283 283 283 283 283 284 284 283 283 284 284 285 286 286 287 288 288 289 289 289 289 289 288 288 289 290 291 292 291 291 291 292 292 292 292 291 292 292 292 291 290 290 292 293 294 296 298 301 302 301 299
283 283 283 283 283 283 284 283 283 283 282 282 283 283 284 285 286 287 287 287 288 288 289 288 288 288 289 290 291 291 290 291 291 291 292 293 293 291 291 292 291 291 290 290 291 292 293 296 299 299 300 300
283 283 282 282 282 283 283 283 283 283 282 282 282 282 282 283 283 284 285 286 286 286 287 288 288 288 289 289 289 290 290 290 291 291 291 292 293 292 291 291 290 291 292 290 289 290 291 294 297 298 298 299
283 283 282 283 283 283 283 283 283 283 282 282 282 282 282 283 282 283 283 284 285 285 286 287 288 288 288 288 288 289 289 289 290 290 291 291 293 293 292 291 290 290 290 292 292 291 291 292 293 295 297 298
283 283 283 283 282 282 282 283 283 283 282 282 282 281 282 282 282 282 282 283 284 284 284 285 286 287 288 288 287 288 288 288 289 289 290 290 290 292 292 291 291 291 291 291 291 291 291 291 291 292 294 298
282 283 282 281 281 281 282 282 282 282 282 282 282 282 282 282 282 282 282 282 283 283 284 285 286 286 287 287 287 287 287 287 287 288 289 289 290 290 291 292 291 291 291 290 290 290 290 291 292 291 292 293
282 281 281 281 280 280 280 281 281 281 282 282 282 282 282 282 282 282 282 282 282 282 282 282 283 284 286 286 286 286 286 287 288 288 288 288 289 289 289 289 291 291 291 289 288 289 289 289 292 293 292 290
282 282 282 281 280 280 280 280 280 280 281 281 281 282 282 282 282 282 282 282 282 282 282 282 281 282 282 284 284 285 286 287 287 287 288 288 287 289 287 287 290 290 290 287 286 286 287 288 290 293 293 291
282 282 282 281 281 281 280 281 281 281 281 281 281 281 282 282 282 282 281 281 282 281 280 280 280 280 281 281 283 283 284 285 286 286 286 287 286 286 288 288 290 289 290 286 288 288 286 284 285 289 292 294
282 282 282 282 281 281 281 280 282 281 281 281 281 280 281 282 281 281 280 281 280 280 280 280 279 280 280 280 281 282 282 284 284 285 286 286 286 287 284 286 287 290 290 288 287 282 283 283 285 282 285 290
282 281 281 281 281 281 280 280 280 279 279 280 280 280 280 279 280 280 280 280 279 279 279 279 279 279 280 280 281 281 281 282 284 285 286 286 286 286 285 284 285 287 289 289 290 286 284 282 281 281 285 288
279 278 278 278 277 276 276 276 276 276 276 277 277 277 279 279 279 279 279 279 279 279 279 278 279 279 280 280 280 281 281 281 283 284 285 285 286 285 286 285 285 285 288 288 289 289 288 287 283 283 285 286
279 278 278 277 277 276 276 275 276 277 278 277 277 278 278 277 278 279 278 278 279 279 278 278 279 279 280 280 280 281 280 281 283 284 285 285 285 285 286 285 283 284 285 287 287 289 288 288 288 287 284 281

ECMWFFLT2_sfc_thetae_039.txt.gz
Theta_e
301 302 302 303 304 304 305 305 306 306 306 306 306 306 306 305 304 305 305 308 309 309 310 310 314 314 315 316 315 314 315 316 318 319 320 320 323 325 326 327 327 327 328 328 327 326 325 323 322 321 322 312
298 300 300 301 301 302 302 303 304 304 304 304 304 303 302 302 301 302 303 304 306 307 307 307 309 312 313 314 314 312 312 313 314 315 316 318 318 319 320 323 325 326 327 326 327 325 324 323 322 321 320 312
291 297 298 299 300 300 300 301 301 302 302 302 301 301 300 299 299 299 300 301 302 304 304 304 304 308 310 311 312 310 311 312 312 312 313 315 316 316 316 318 320 323 325 326 327 325 324 322 321 321 318 310
288 293 296 296 297 298 298 299 299 299 300 300 299 299 299 297 296 297 296 299 297 301 301 301 301 306 308 308 309 308 308 309 311 310 310 311 313 313 312 313 314 316 322 325 325 324 323 321 320 316 310 309
288 290 293 292 294 295 296 297 297 297 297 297 297 297 297 295 292 292 293 294 294 297 295 298 299 302 305 306 306 305 305 306 309 309 309 307 308 309 309 310 309 310 315 319 324 323 322 320 316 311 309 307
288 288 289 286 287 288 291 293 293 290 291 294 291 296 292 291 292 291 290 292 297 294 295 295 298 299 301 303 304 304 303 303 305 306 308 307 305 305 305 306 304 305 308 312 315 322 320 316 310 307 307 307
287 286 285 285 286 287 291 290 289 286 288 288 289 291 290 292 291 291 290 292 294 294 296 294 296 297 299 300 301 301 300 300 302 302 304 304 304 302 302 300 302 304 304 306 310 317 317 311 308 306 305 305
285 285 285 285 285 285 285 286 286 285 286 286 288 289 291 290 291 290 289 294 294 294 291 291 294 296 296 297 298 299 296 298 300 300 300 300 300 298 297 297 299 302 302 304 306 308 311 308 307 305 303 303
285 285 284 284 285 285 284 285 284 284 285 285 287 288 290 290 291 289 289 289 289 289 289 290 290 290 290 291 292 296 292 294 295 298 295 295 296 295 295 296 297 300 300 301 303 306 307 308 308 305 304 299
286 285 284 284 285 285 284 285 284 284 284 285 286 287 290 290 288 288 288 288 288 288 288 289 289 289 290 290 291 293 292 293 293 294 294 295 295 295 295 295 294 297 299 299 301 304 306 307 309 308 304 300
284 284 284 284 285 284 284 285 284 284 284 285 285 286 289 289 287 287 287 287 287 287 287 287 288 288 289 289 290 291 291 291 293 293 293 294 294 295 295 294 294 295 296 297 298 301 304 306 306 305 304 303
284 284 284 284 285 284 285 285 283 283 284 285 285 287 287 289 287 286 286 286 286 286 286 286 287 287 288 288 289 290 290 291 292 292 293 292 292 295 295 295 294 294 293 295 297 299 301 305 305 305 303 302
283 283 283 283 283 283 285 283 283 283 283 282 284 285 285 286 285 285 285 285 285 285 285 285 286 286 287 287 287 289 289 290 291 291 292 292 292 292 293 294 293 294 294 293 293 296 299 303 304 304 303 301
281 281 282 282 282 282 284 282 283 284 282 282 282 282 283 284 284 285 284 283 283 283 283 284 284 285 286 286 287 287 287 289 290 290 290 290 291 292 292 292 293 294 293 293 293 294 297 300 302 302 302 302
282 282 280 283 281 281 281 281 284 282 282 282 282 282 282 282 283 285 282 281 281 282 282 282 283 284 285 285 286 287 287 287 288 289 288 289 290 291 292 292 293 293 292 293 293 292 293 296 299 300 301 301
282 282 281 283 280 280 281 283 281 281 282 284 281 282 281 281 281 285 281 280 281 281 281 281 282 283 283 284 285 286 286 286 287 288 288 289 290 292 292 292 291 292 291 291 292 291 292 293 295 297 300 299
280 280 281 281 280 281 284 281 281 280 281 281 281 282 281 281 281 283 280 280 280 282 280 281 281 281 283 283 284 285 285 285 286 286 287 287 289 289 290 290 291 292 291 291 291 290 290 291 291 294 296 298
280 280 280 283 280 282 281 279 279 281 281 281 282 281 280 280 281 282 280 280 279 280 279 280 280 280 281 282 283 284 284 284 284 284 285 286 287 288 289 288 289 291 290 291 290 290 290 290 291 291 293 296
280 281 281 279 279 279 279 280 279 279 279 279 279 280 279 280 282 282 280 280 279 279 279 279 279 280 281 282 282 282 283 283 283 283 284 286 285 286 286 287 288 290 290 291 290 290 289 288 290 290 290 293
279 280 280 279 283 280 279 279 279 278 279 280 279 280 279 279 281 282 279 279 279 279 278 279 279 280 280 281 282 281 282 282 282 282 283 284 285 284 284 286 286 288 289 289 290 291 289 289 289 289 290 290
279 279 279 279 279 279 279 278 279 278 279 279 278 278 278 279 281 280 280 280 279 279 278 278 279 279 280 281 279 279 279 279 281 281 282 282 284 284 283 284 285 286 287 288 290 290 290 290 289 288 288 290
278 279 279 279 278 281 280 279 278 278 278 278 278 278 278 279 280 281 279 279 279 279 280 279 278 278 279 279 278 277 277 277 278 279 279 279 281 282 283 283 283 285 286 288 289 289 289 290 290 289 289 289
278 278 278 278 278 278 278 278 278 278 277 277 277 277 278 280 279 280 279 279 279 278 279 278 278 278 277 277 277 276 276 276 277 278 277 278 279 281 282 282 283 284 285 286 287 288 288 289 290 290 290 289
277 276 276 276 276 277 277 277 279 279 277 277 276 279 278 278 278 278 280 279 279 278 279 278 277 277 276 276 276 275 275 275 276 276 276 277 278 278 280 282 282 283 283 284 285 286 287 288 288 288 289 289
274 273 273 274 274 273 275 276 278 277 278 278 278 278 278 278 278 277 277 279 277 277 277 277 276 276 275 275 276 275 275 275 275 276 276 276 277 277 277 278 281 281 282 281 281 284 285 286 286 288 289 288
273 273 273 272 272 272 273 274 275 275 276 277 278 277 277 278 277 277 276 277 277 277 276 275 275 275 275 275 274 276 276 276 278 275 275 275 275 277 277 276 279 281 281 279 278 279 281 283 285 286 287 286
272 273 273 272 272 272 272 274 275 276 277 277 276 276 276 277 276 276 276 276 277 276 276 275 275 275 275 274 276 275 273 273 274 274 274 275 275 275 276 277 280 280 281 278 279 279 280 279 280 284 285 286
273 273 273 273 273 273 272 272 275 275 276 276 276 275 276 275 275 275 275 275 275 275 275 275 274 275 274 274 275 274 273 273 273 274 274 275 276 276 274 275 276 280 281 280 278 275 275 277 280 278 280 282
273 273 272 272 272 272 272 272 272 273 273 273 274 274 274 273 274 274 274 274 274 275 274 274 274 274 274 274 274 274 273 273 274 274 275 275 275 275 274 274 275 277 279 280 281 279 278 274 273 274 280 281
272 271 270 270 269 268 269 269 270 269 269 270 270 271 272 272 273 273 273 273 273 273 274 274 274 274 273 274 274 275 275 274 274 274 275 275 275 275 275 274 275 274 278 280 282 282 282 281 276 277 277 279
272 270 270 269 269 269 269 269 269 270 270 270 271 271 271 271 272 272 272 273 273 273 273 273 273 273 273 273 273 276 274 274 274 274 275 276 275 274 276 275 273 274 275 278 280 282 282 282 283 281 279 275

ECMWFFLT2_sfc_thetae_045.txt.gz
Theta_e
295 297 299 299 299 300 300 301 301 301 301 302 302 302 303 302 301 301 301 303 304 306 305 305 306 308 310 311 312 312 312 313 314 314 315 315 314 315 315 315 316 317 319 320 320 319 322 326 324 322 318 311
293 294 297 296 296 297 298 298 299 298 298 299 299 300 299 299 298 298 299 301 301 302 302 302 303 306 308 309 310 310 310 311 313 313 313 313 313 312 312 313 313 314 315 316 316 317 318 321 323 321 320 310
286 292 295 294 294 295 296 296 297 296 296 295 295 297 296 297 296 296 296 298 299 300 300 299 300 303 306 307 308 308 307 309 310 311 311 311 311 310 309 309 309 310 312 312 312 314 314 315 320 321 317 310
283 289 293 292 292 293 294 294 294 294 293 293 292 293 293 293 291 292 291 296 293 297 297 296 296 300 303 305 304 305 304 306 308 308 309 309 309 308 307 306 304 306 308 309 309 309 309 311 314 313 311 310
284 286 291 288 290 291 292 291 292 291 290 290 288 289 290 290 287 288 288 289 290 293 291 293 295 297 300 302 302 302 301 302 304 306 307 306 306 305 304 303 301 302 304 305 306 305 305 307 307 307 308 308
284 285 287 282 282 284 287 288 290 285 285 287 283 288 285 285 285 286 286 287 289 288 288 289 292 294 296 299 300 301 298 299 301 302 303 303 303 302 301 301 296 297 299 301 302 302 303 300 303 305 306 306
284 283 282 282 282 284 287 286 286 282 284 281 282 283 283 285 283 286 285 285 287 287 289 287 290 291 293 295 296 297 295 296 297 299 300 300 300 299 299 296 296 296 296 296 299 299 298 298 300 301 303 303
282 281 282 281 281 282 282 281 283 281 281 281 281 282 282 283 283 284 283 286 287 286 283 284 287 289 289 290 291 293 290 292 293 295 295 296 297 295 295 295 295 296 295 295 295 296 296 297 298 298 299 300
281 283 282 281 281 281 282 281 281 281 281 281 281 281 282 282 282 283 281 281 282 282 282 282 282 283 283 284 284 289 285 285 286 288 287 288 291 291 292 293 294 295 295 295 295 295 295 296 297 297 297 296
283 285 281 280 281 282 282 281 281 280 280 281 281 281 282 283 280 281 280 280 280 281 281 281 281 282 282 283 283 285 284 284 284 285 286 286 287 289 291 291 293 295 295 294 294 294 295 295 296 296 297 296
281 281 281 280 282 283 281 281 282 280 280 281 281 281 282 282 279 280 279 279 278 279 280 280 281 281 282 282 282 283 283 283 283 284 284 285 285 287 288 290 291 293 294 294 294 294 294 295 295 295 296 296
280 280 280 281 282 280 283 284 282 280 280 282 280 282 281 284 279 279 278 278 278 278 278 279 280 280 281 281 281 282 282 281 282 282 283 283 284 285 286 287 288 291 292 293 294 294 294 294 294 294 295 296
278 279 279 279 279 278 284 280 280 280 280 280 280 281 281 282 279 279 278 277 278 278 278 278 278 279 280 280 281 281 280 281 280 280 281 281 282 283 284 285 285 288 289 292 293 293 293 293 294 294 294 295
277 277 277 278 278 278 281 278 279 281 280 279 279 279 280 280 281 280 278 277 277 277 277 277 277 279 278 279 280 280 279 280 280 279 279 280 280 280 281 282 283 285 286 288 291 293 293 293 293 293 294 294
277 278 276 279 277 277 278 279 280 279 278 278 279 279 280 280 280 282 278 278 277 277 277 277 277 277 278 277 278 279 278 279 279 279 279 279 279 278 280 280 281 283 283 285 287 290 291 292 293 293 293 293
276 277 277 278 277 277 278 279 277 277 278 279 278 279 279 279 278 281 279 278 278 279 277 276 277 277 277 277 277 278 277 278 278 278 278 279 279 278 279 278 279 281 281 282 283 285 287 291 291 292 293 292
276 276 276 277 276 278 279 277 276 276 277 277 278 278 278 278 279 282 279 278 278 281 276 276 276 276 278 277 277 277 277 277 277 277 277 277 278 278 278 277 278 280 279 280 281 282 284 288 289 291 292 292
275 276 277 278 276 278 277 276 275 277 276 277 277 277 277 277 278 281 277 278 277 277 277 277 276 276 276 277 276 276 276 275 275 276 276 277 276 278 277 276 277 277 277 278 280 280 282 284 287 290 291 292
276 276 276 275 276 275 275 276 274 275 276 276 276 276 276 277 279 278 277 277 276 276 276 276 276 276 276 276 276 274 275 275 275 275 275 277 275 276 275 276 276 277 277 277 278 279 281 281 284 287 289 291
274 274 274 274 277 275 274 274 274 274 275 275 275 276 276 276 279 277 276 276 276 275 276 275 275 275 275 276 275 274 274 275 274 275 275 275 275 274 275 276 275 276 276 277 278 279 280 281 282 284 287 288
273 273 273 273 273 274 274 273 272 273 274 274 274 275 275 276 278 276 276 276 275 274 275 274 274 275 274 276 274 274 273 273 275 274 275 274 276 275 274 274 275 275 276 277 278 278 279 280 281 282 285 287
273 273 273 272 272 274 272 272 272 273 273 273 274 274 275 275 276 276 274 275 275 274 276 274 273 274 274 274 274 273 273 273 274 274 273 273 274 275 274 274 274 275 276 277 277 277 278 279 280 282 283 286
272 272 272 272 271 271 271 272 272 273 272 272 273 273 274 276 274 275 274 274 274 273 274 273 273 273 273 273 273 273 273 273 274 275 274 273 273 275 274 275 275 275 276 276 276 277 277 279 280 281 282 285
271 271 271 271 270 271 271 271 273 273 272 272 272 274 274 273 272 273 274 273 273 273 274 272 272 272 273 273 273 273 272 272 272 273 273 273 274 273 274 275 275 275 275 275 275 276 277 277 278 279 282 283
270 269 269 270 270 269 270 271 272 271 271 272 272 272 273 273 272 272 272 273 272 272 273 273 272 272 272 272 273 273 272 273 273 274 274 274 274 274 273 273 274 274 276 274 273 275 275 276 278 281 283 283
270 270 269 270 269 269 269 269 269 270 270 272 272 272 272 272 271 271 271 273 272 273 272 271 271 271 271 271 271 273 273 273 274 273 273 273 272 273 273 272 274 274 274 272 272 271 272 275 278 280 281 281
270 269 270 270 270 269 269 270 271 270 272 272 271 271 271 272 271 271 271 271 272 273 272 271 271 271 271 271 273 271 271 271 271 272 272 272 272 271 273 273 274 273 274 271 273 272 273 270 274 277 278 280
271 271 271 271 270 270 269 269 271 271 271 270 270 270 271 271 271 271 271 271 271 273 271 271 271 271 271 271 272 271 270 270 270 271 272 272 272 273 270 271 272 274 274 272 272 266 269 271 273 271 273 276
270 271 270 270 270 270 270 270 269 269 269 270 270 271 270 270 270 271 271 271 271 272 271 271 271 271 271 271 271 271 270 270 271 271 272 272 272 271 270 271 271 272 273 273 274 272 270 265 268 268 274 274
270 270 269 268 267 266 267 266 267 267 267 268 268 268 270 270 270 270 270 270 271 271 272 271 271 271 271 270 270 271 270 270 270 270 271 272 272 272 272 271 271 270 273 273 274 274 273 273 270 271 271 273
271 269 268 268 267 267 266 266 267 268 269 269 269 269 269 269 270 270 270 270 270 270 271 271 271 271 270 270 270 271 270 269 270 270 270 272 271 271 272 271 269 269 270 272 273 273 273 274 274 274 272 268

ECMWFFLT2_sfc_thetae_051.txt.gz
Theta_e
294 295 295 296 296 296 296 297 297 297 297 297 296 296 296 295 294 294 295 296 297 298 299 298 298 299 301 304 304 305 305 306 306 306 307 308 308 308 308 308 308 308 309 310 309 309 309 308 308 308 307 307
292 293 295 295 295 294 295 295 295 296 295 295 294 294 293 293 291 292 292 293 294 296 296 295 297 298 300 302 303 303 303 303 304 305 306 306 306 306 305 306 306 306 307 308 308 307 307 306 305 305 305 302
287 291 293 294 294 294 294 294 294 295 294 293 292 292 291 291 289 289 290 291 292 293 294 293 294 295 298 299 301 301 301 301 302 303 304 304 304 304 303 303 302 303 304 305 306 306 305 304 303 303 301 300
286 288 292 292 292 292 292 292 293 293 292 291 290 290 290 289 287 287 286 289 287 290 291 290 290 293 296 297 297 299 298 298 300 301 302 302 302 301 300 299 298 299 300 302 303 303 303 302 302 297 298 299
286 287 290 288 288 289 290 290 290 290 289 289 288 288 288 287 286 286 286 284 286 288 287 288 290 291 293 295 295 295 294 295 297 299 299 299 300 299 297 295 293 293 295 298 299 300 300 300 296 297 297 298
286 287 287 285 285 285 287 287 288 286 286 287 285 286 285 285 285 285 285 285 287 286 286 286 288 289 290 292 293 294 292 292 293 296 297 297 297 296 294 292 288 288 290 292 295 296 297 295 295 296 296 296
285 285 285 284 284 285 286 286 286 284 285 284 284 284 284 285 285 285 285 285 286 286 286 285 287 287 289 289 290 291 289 289 290 292 292 292 293 292 290 286 287 287 288 288 291 292 291 292 293 294 295 295
284 285 284 283 284 284 284 284 284 283 283 283 283 283 284 284 284 285 285 285 285 285 284 284 285 286 285 286 286 287 285 286 286 288 288 288 289 286 285 284 284 285 286 287 287 287 288 289 290 291 294 294
284 284 282 283 283 284 283 283 283 282 282 283 283 283 283 284 285 284 284 284 284 283 283 283 283 284 284 284 284 285 282 282 282 283 282 282 283 282 282 282 282 283 284 285 286 286 288 288 288 289 291 292
284 282 282 282 283 283 283 282 281 281 282 282 282 282 282 284 283 283 283 283 283 283 283 283 283 283 283 283 283 283 282 281 281 281 281 281 281 281 282 282 282 282 283 282 283 284 286 287 287 288 289 290
281 281 281 282 284 283 284 282 281 281 281 281 281 281 282 282 281 281 282 282 282 282 283 282 282 282 282 282 282 282 281 281 281 280 280 280 281 281 281 281 281 282 282 282 281 282 284 285 285 286 288 288
280 281 281 283 282 281 285 281 281 280 281 281 280 281 281 281 281 281 281 281 281 282 282 282 282 282 282 281 281 282 281 281 280 279 279 280 280 280 280 280 280 281 281 281 281 281 282 283 283 285 287 288
280 280 281 281 280 280 284 280 280 280 280 280 280 280 280 281 280 281 281 281 281 282 281 282 281 281 281 281 281 281 280 280 280 279 279 279 280 279 279 280 279 280 280 281 281 281 281 281 282 284 285 286
280 280 280 281 280 280 282 279 280 280 279 279 279 279 280 279 280 280 279 279 280 280 281 281 281 281 280 279 280 280 280 280 279 279 279 279 279 279 279 279 279 280 280 280 280 280 280 280 281 283 284 285
279 280 279 281 279 279 280 280 280 279 279 279 279 279 279 279 279 281 279 278 279 280 279 280 280 279 279 279 279 279 279 280 280 279 279 279 279 278 279 279 279 279 279 279 280 280 280 280 281 281 283 284
280 280 279 281 279 279 280 280 279 278 278 279 278 279 279 278 278 280 279 278 278 280 278 278 278 278 278 278 278 279 279 279 279 279 279 279 279 279 279 278 279 279 279 278 279 280 279 280 280 281 281 282
279 279 279 279 279 279 280 279 278 277 277 277 278 278 278 278 278 280 278 278 278 279 278 277 277 277 277 278 278 278 278 278 279 279 278 278 279 278 279 278 278 279 279 278 278 279 279 280 280 280 281 281
279 279 279 280 278 278 278 277 277 277 277 276 277 277 277 277 277 279 278 278 277 278 278 277 277 276 276 277 278 278 278 277 278 278 277 277 277 277 277 276 277 277 277 278 278 278 279 279 279 280 280 280
279 279 279 278 277 277 277 277 277 276 276 276 276 276 276 276 276 278 277 277 277 276 277 276 276 276 276 277 277 277 277 277 277 277 277 277 276 276 276 276 277 277 277 277 277 277 278 278 279 280 279 280
278 278 277 277 278 277 277 276 276 276 275 275 275 276 276 275 276 278 276 277 276 275 276 276 275 276 276 276 277 276 276 277 276 277 276 277 276 274 275 276 275 276 276 276 276 277 277 278 278 278 279 280
278 276 275 275 275 275 276 275 275 275 275 275 275 275 275 275 276 277 275 275 276 275 275 276 275 275 276 276 276 275 276 276 276 276 276 276 276 275 274 275 275 275 276 276 276 276 277 277 278 278 278 279
276 276 275 275 275 276 276 275 275 275 275 274 274 275 274 275 275 275 275 274 275 274 275 276 275 275 275 275 275 275 275 275 276 276 276 275 276 275 275 274 274 274 275 276 276 276 276 277 277 277 278 279
277 276 275 274 274 274 274 274 274 274 274 274 274 274 274 275 275 275 274 274 274 274 274 274 275 274 274 275 274 274 275 275 275 275 275 275 274 276 276 275 274 274 275 275 275 276 276 277 277 278 278 279
276 276 275 274 274 273 273 274 274 274 274 274 274 274 274 274 274 274 274 274 274 274 274 274 274 274 274 274 274 274 274 274 274 274 274 274 274 274 275 275 275 275 274 275 275 275 276 277 277 277 278 278
274 274 273 273 272 272 272 272 273 273 274 274 273 273 274 274 274 274 273 274 273 273 273 274 274 273 273 273 274 274 273 273 274 274 274 274 274 274 273 274 275 275 276 274 273 275 275 275 277 278 279 279
275 274 274 273 273 272 272 272 272 272 272 272 273 273 274 274 274 274 273 273 273 273 273 273 273 273 273 273 273 274 273 273 274 273 273 273 273 274 273 273 275 275 275 272 271 270 271 274 278 280 280 282
274 274 274 273 273 272 272 273 273 272 273 273 273 273 273 274 274 273 273 273 273 272 272 273 273 272 273 273 273 272 271 272 272 272 272 272 272 272 273 273 275 274 273 270 272 272 272 270 273 276 277 279
274 274 274 274 273 272 272 271 273 272 273 272 272 272 273 273 273 273 273 273 272 272 272 272 272 273 273 272 272 271 271 271 271 271 271 272 272 272 270 271 272 273 273 273 272 267 269 271 270 270 271 273
276 274 274 273 273 273 272 272 272 271 271 271 272 272 272 272 273 273 272 272 272 272 272 273 273 272 272 272 272 272 271 271 271 271 272 272 271 271 270 270 270 271 273 273 275 271 269 267 267 269 272 272
275 274 272 271 270 270 270 269 270 269 270 270 270 270 272 272 272 272 272 272 272 272 272 272 272 273 272 271 271 271 271 271 271 271 271 272 271 270 271 270 269 269 272 274 274 273 273 273 269 269 270 270
274 272 272 271 271 271 270 269 270 271 271 271 271 271 271 271 272 272 271 271 271 272 272 272 272 272 272 271 271 272 271 271 271 271 271 272 271 271 272 270 268 269 270 271 272 273 273 273 273 272 270 264

ECMWFFLT2_sfc_thetae_054.txt.gz
Theta_e
293 294 294 295 296 295 295 296 296 296 296 296 295 295 295 294 293 292 293 295 295 296 296 295 296 297 299 300 301 302 302 302 302 302 304 305 306 306 306 305 305 305 306 306 307 306 306 306 305 304 303 299
292 293 294 294 294 294 294 294 295 295 295 294 294 293 293 292 291 291 291 292 293 294 294 293 294 295 297 298 299 300 300 299 299 300 301 303 304 304 303 303 303 303 304 304 305 304 304 304 303 302 301 298
292 292 293 293 292 292 292 293 293 293 293 293 292 292 291 291 290 290 290 290 291 292 292 291 292 293 295 297 297 298 298 297 297 299 300 301 301 301 301 301 300 300 301 302 302 302 302 302 300 300 298 297
291 291 292 291 290 290 291 291 291 291 291 291 290 290 290 290 289 289 289 290 289 290 290 289 289 291 294 295 295 295 295 295 295 297 298 298 299 299 298 298 297 297 298 299 300 300 300 299 298 294 294 295
291 290 290 290 289 289 289 290 290 289 289 289 288 288 288 288 288 289 288 289 288 289 289 288 288 289 291 293 293 293 293 292 293 295 295 295 296 296 295 294 292 293 295 296 297 297 297 296 292 291 292 293
291 291 290 289 289 289 289 289 288 288 288 288 288 288 287 288 288 287 288 288 288 288 288 288 287 288 289 291 291 291 290 290 290 292 292 292 293 291 291 290 287 288 290 292 293 293 294 290 290 290 291 292
290 290 289 289 289 289 288 289 289 288 288 288 288 287 287 287 287 287 288 287 288 288 288 287 286 286 288 288 288 288 288 288 288 289 290 289 290 289 288 286 286 286 286 287 290 290 288 288 289 289 289 291
289 289 288 288 289 289 288 289 288 288 288 287 287 287 286 286 286 287 287 287 287 287 288 288 287 286 286 286 287 286 287 287 286 287 287 287 287 286 286 286 284 285 286 286 286 286 286 287 287 287 288 289
288 289 288 288 288 288 287 288 287 287 287 287 287 286 286 286 286 286 286 287 287 287 287 287 287 287 287 287 287 286 287 287 287 287 286 286 286 286 286 285 283 283 283 283 283 284 285 286 286 286 287 288
288 288 287 287 287 287 287 288 287 286 286 286 286 286 286 286 285 285 285 286 286 286 286 286 286 287 287 286 287 287 287 286 286 286 286 285 285 286 285 285 284 283 284 282 283 283 284 284 284 285 286 286
287 287 287 287 287 286 286 287 286 285 285 285 285 285 285 284 284 284 284 285 285 285 286 286 286 286 286 286 286 286 286 286 286 285 285 285 285 285 285 284 284 283 283 283 282 282 282 283 283 284 285 286
286 287 287 287 287 286 286 286 285 285 285 285 284 285 285 284 284 283 283 284 284 285 286 286 286 286 285 285 285 286 286 285 285 285 285 285 285 284 284 284 284 283 283 282 282 282 282 282 283 283 284 285
287 287 287 286 286 285 286 286 285 285 285 284 284 284 284 284 283 283 284 283 283 284 284 285 285 285 285 285 285 285 285 285 284 284 284 284 284 284 284 284 284 283 283 282 282 281 281 282 282 282 283 284
287 286 286 286 286 285 286 285 285 285 284 284 283 283 284 283 283 282 282 283 283 283 283 284 285 285 285 284 284 284 284 284 284 284 284 284 284 283 283 283 283 283 282 282 281 281 281 281 281 282 283 283
286 286 285 286 286 286 285 285 285 284 284 283 283 283 283 283 283 282 282 283 282 282 283 283 284 284 284 283 284 284 284 284 284 284 283 283 283 283 283 283 283 283 282 282 281 281 281 281 281 281 282 282
286 286 285 286 285 285 285 285 284 283 283 283 283 283 283 282 282 282 281 283 282 282 282 282 282 283 283 283 283 283 283 283 283 283 283 284 283 283 283 283 283 283 282 282 281 281 280 281 281 281 282 281
286 286 285 285 285 285 285 284 284 283 283 282 282 282 282 282 281 282 281 282 282 282 281 282 282 282 282 282 283 283 283 282 283 283 283 283 283 283 283 282 282 283 283 282 281 280 279 279 280 281 282 281
285 285 285 285 285 285 284 283 282 282 283 282 282 282 281 281 281 281 280 281 281 281 281 281 281 281 281 282 282 282 282 281 282 281 282 282 282 282 282 281 282 281 281 281 281 280 279 279 280 280 280 281
284 285 285 284 284 284 283 283 282 282 282 281 281 281 280 280 280 280 280 281 281 280 280 280 280 281 281 282 282 281 281 281 281 281 281 281 281 281 281 281 281 281 281 280 280 280 279 278 279 279 279 280
285 285 284 284 283 283 283 282 282 281 281 281 280 280 280 280 280 280 280 281 280 280 280 279 279 280 281 281 281 281 280 281 280 281 281 281 281 280 280 280 280 281 280 280 280 280 279 278 279 278 279 279
285 284 283 283 282 282 282 281 281 281 281 281 280 280 279 280 279 280 280 280 280 279 279 279 279 280 280 280 280 279 279 279 280 280 280 280 281 281 279 279 279 280 280 279 279 279 279 278 278 278 279 279
284 283 283 282 282 282 281 281 281 281 281 280 280 279 279 279 279 279 280 279 279 278 279 279 279 279 279 279 279 279 279 278 279 279 279 278 280 280 279 278 279 279 279 279 278 278 278 278 278 278 278 279
284 283 282 282 281 280 280 281 280 280 280 280 280 279 279 279 278 279 279 279 279 278 278 278 278 278 279 279 278 278 278 278 278 279 279 278 278 279 279 279 279 279 278 278 278 278 279 279 279 279 279 280
283 282 281 280 280 279 280 280 280 280 279 280 279 279 279 279 278 279 279 278 278 278 277 277 277 278 278 278 277 277 277 277 277 277 277 277 277 277 278 279 279 279 278 278 278 278 279 279 279 278 279 279
282 281 281 281 280 280 280 280 279 279 279 279 279 279 278 278 278 278 278 278 278 277 277 277 277 277 277 277 277 277 276 277 277 277 277 277 277 277 276 277 279 279 279 277 276 278 278 278 279 279 280 280
282 282 282 281 281 280 280 279 279 279 279 279 278 278 278 278 278 278 278 278 278 277 277 276 276 277 277 277 277 277 277 277 277 277 276 276 275 277 276 276 278 278 277 275 275 274 275 277 279 280 282 283
282 282 282 281 281 280 280 280 279 279 279 279 278 278 278 278 278 278 278 278 277 277 276 276 276 276 277 277 277 276 276 276 275 276 276 275 275 275 277 277 278 277 277 274 275 276 275 274 274 278 278 280
283 283 282 282 281 281 279 278 279 278 278 277 277 277 277 277 277 277 277 277 277 276 276 276 276 276 276 276 277 276 275 275 275 275 275 275 275 275 274 275 276 278 277 276 275 272 274 274 274 273 274 275
283 282 281 280 280 279 278 278 277 276 276 276 277 277 277 277 277 277 277 277 277 276 276 276 276 276 276 276 276 276 275 275 275 275 275 275 275 275 274 274 275 276 276 276 278 275 272 272 271 272 274 273
282 281 280 279 277 276 276 275 276 275 276 276 276 276 277 277 277 277 277 277 276 276 276 275 276 276 276 276 276 276 275 275 275 275 275 275 275 275 275 274 274 274 276 276 277 276 276 276 272 271 271 272
282 281 280 279 278 278 278 277 278 279 279 278 278 278 276 276 277 277 276 276 276 276 276 275 276 276 276 276 276 276 275 274 275 275 275 276 275 275 275 275 272 273 274 275 276 276 276 276 275 273 271 267

ECMWFFLT2_sfc_thetae_060.txt.gz
Theta_e
295 294 294 294 295 295 295 295 296 296 296 296 296 296 296 296 296 296 297 298 297 298 298 298 299 299 299 300 300 301 301 301 301 300 300 300 300 300 300 300 299 298 298 299 299 298 299 299 298 298 299 294
296 295 293 293 293 293 293 294 294 295 295 295 295 295 295 294 294 295 296 296 296 297 296 296 297 297 298 299 300 300 300 300 299 299 298 299 299 298 298 298 298 296 296 296 297 297 297 297 296 296 297 291
293 296 293 292 293 292 292 292 293 293 294 294 293 293 293 293 293 293 293 294 294 295 295 295 295 295 298 298 298 298 299 299 298 297 298 298 297 297 297 297 296 295 296 296 295 295 295 295 294 294 292 289
292 296 293 292 293 293 292 292 292 292 293 292 292 292 292 292 291 290 290 293 291 293 294 292 292 294 297 297 297 297 298 297 296 297 296 296 296 296 295 295 294 294 294 295 294 294 294 293 292 287 286 287
292 292 293 293 294 293 293 292 292 292 292 291 290 290 290 290 287 287 287 287 287 291 290 291 292 293 295 296 296 296 296 296 295 296 295 295 295 295 294 293 292 291 292 293 293 292 292 291 286 285 285 286
294 294 294 290 290 291 290 291 292 290 290 290 289 290 288 287 287 286 285 286 290 288 289 289 292 293 294 295 296 296 295 294 295 295 294 294 294 293 293 292 285 286 289 290 291 291 290 286 284 284 284 284
293 291 290 290 289 291 292 291 289 289 288 288 288 288 287 288 285 286 286 286 289 290 291 290 291 292 293 294 295 294 293 293 293 294 293 294 293 292 291 286 284 283 282 284 289 289 285 283 283 283 283 283
290 290 289 288 288 288 288 288 289 288 288 287 287 287 286 286 286 286 285 289 289 289 288 287 290 291 292 291 292 291 291 290 291 292 292 291 291 291 290 283 283 283 281 282 282 282 281 281 282 282 283 283
290 290 288 288 288 288 287 287 287 287 287 287 287 286 286 286 286 286 284 284 284 284 285 285 285 286 286 286 285 289 285 286 287 287 285 285 288 283 285 284 282 282 281 283 282 280 280 280 281 282 283 281
291 292 288 288 287 287 287 289 286 286 286 286 286 286 286 286 285 284 284 284 283 284 284 284 283 284 285 284 285 287 284 283 284 283 283 283 284 283 282 282 282 282 284 282 281 280 279 279 279 279 281 281
290 288 288 288 287 287 286 286 286 285 286 286 285 286 287 285 283 283 283 282 283 283 283 283 283 283 284 284 284 285 284 283 283 283 283 282 282 282 282 282 282 282 281 281 281 281 280 279 278 278 280 280
288 288 289 288 291 289 289 288 286 285 285 287 284 286 285 286 283 282 282 282 282 282 283 283 283 283 283 283 283 285 284 283 282 282 282 282 282 282 282 281 281 281 281 280 281 280 280 279 278 278 279 280
289 288 288 288 287 286 291 286 285 285 286 285 285 285 286 285 283 282 282 281 281 282 282 282 282 282 282 283 283 284 282 282 282 281 281 281 281 281 281 281 280 281 281 281 281 281 280 280 278 278 279 279
289 288 287 288 287 286 290 285 286 286 284 283 283 283 284 285 283 282 281 281 281 281 281 282 282 282 282 282 282 283 282 282 282 280 280 281 281 281 280 280 281 282 280 280 280 280 280 280 280 278 279 278
289 289 288 288 287 287 286 286 287 286 284 284 283 284 284 284 284 283 282 281 281 281 280 281 281 281 281 281 281 282 282 282 282 281 280 280 280 280 280 280 280 281 280 280 280 281 280 280 280 280 280 279
289 288 288 288 287 286 286 287 285 284 284 286 283 284 284 283 282 285 281 281 281 280 280 280 280 281 280 280 281 282 281 281 281 281 280 281 281 281 280 280 280 281 280 279 280 280 280 280 280 279 279 279
288 288 288 288 287 286 288 286 285 284 284 283 284 284 284 283 283 284 282 281 281 283 280 280 280 280 282 281 281 281 282 281 281 280 279 280 281 280 280 279 279 281 280 279 279 280 279 280 279 280 280 279
287 288 288 288 286 288 286 284 284 285 284 284 283 283 283 283 283 283 281 281 280 280 279 280 280 280 280 280 281 281 281 279 280 279 278 279 279 281 280 278 279 278 278 279 279 279 279 280 279 279 279 278
288 287 288 287 286 286 286 285 284 283 284 282 282 283 282 283 283 282 281 281 280 279 279 279 279 279 279 280 281 279 280 279 279 278 278 279 278 278 278 278 279 279 278 278 278 278 279 278 279 279 278 279
288 288 287 286 288 286 285 284 284 283 283 283 281 282 281 282 282 282 281 281 280 279 279 278 278 279 280 280 280 279 279 279 278 278 278 279 278 276 277 278 277 278 277 278 278 278 278 278 280 278 278 278
288 287 286 286 286 286 285 284 283 282 283 283 282 281 280 281 282 281 281 281 280 279 279 278 279 278 279 280 278 278 278 277 279 277 279 277 279 278 275 276 276 277 277 277 278 278 278 278 279 278 278 278
288 287 287 286 285 286 284 284 283 283 282 282 281 280 280 281 281 282 280 280 280 279 279 279 278 278 279 279 277 277 277 277 277 277 276 276 276 277 276 275 275 275 276 277 277 277 278 278 278 278 278 279
289 287 286 285 284 283 283 283 283 282 281 281 281 281 281 281 281 282 280 280 280 279 279 279 278 278 278 278 276 277 276 276 277 277 276 276 276 277 276 275 276 276 276 277 277 277 277 278 278 278 279 280
287 286 285 283 283 282 283 282 282 282 282 282 281 282 281 281 280 280 281 279 279 279 279 278 277 277 278 277 276 276 275 275 275 275 275 275 275 275 276 278 276 276 276 276 276 277 278 278 278 278 279 279
285 284 283 282 282 282 282 282 282 282 281 281 281 281 281 281 280 280 280 280 279 278 280 278 277 277 276 276 277 276 276 276 275 276 276 275 276 276 274 274 275 275 276 274 274 275 275 276 277 279 280 279
285 284 283 282 282 282 281 281 280 280 280 281 282 281 281 280 280 280 279 280 279 279 278 277 277 276 276 276 275 276 277 276 279 277 276 276 274 275 274 273 275 276 275 274 272 272 272 273 276 278 279 279
285 284 284 283 282 282 281 282 283 281 282 282 280 280 280 280 279 279 279 279 280 278 278 277 277 276 276 276 277 276 275 275 275 275 275 274 274 273 274 275 276 275 275 272 274 273 272 271 271 275 276 277
286 286 285 284 284 284 283 282 284 282 280 280 279 279 280 279 279 279 278 278 278 279 278 277 277 276 276 275 276 275 275 275 274 275 274 274 275 274 271 273 273 276 276 275 273 268 271 270 271 269 272 272
285 285 283 282 282 282 281 281 280 279 279 279 279 279 277 278 279 279 278 278 278 279 277 277 277 277 277 276 275 276 275 275 275 275 275 275 274 274 273 272 273 275 276 275 276 272 270 267 267 268 271 272
284 283 281 280 279 279 279 278 277 278 278 278 277 278 279 279 279 279 278 278 278 278 278 277 277 277 277 277 276 276 275 275 275 274 274 274 274 273 274 273 272 272 276 276 276 275 274 273 269 268 270 270
284 282 280 280 279 279 279 279 279 279 279 279 279 279 278 278 278 278 278 278 277 277 278 278 277 277 277 277 276 277 276 274 274 275 274 275 274 274 275 274 272 272 272 274 275 276 275 275 276 273 271 267

ECMWFFLT2_sfc_thetae_063.txt.gz
Theta_e
299 298 296 296 296 296 295 296 296 296 297 297 297 297 297 296 296 296 297 298 298 299 299 299 300 300 299 301 302 302 302 302 302 301 301 301 301 301 301 300 300 300 300 300 300 299 298 297 296 294 294 288
299 298 297 296 296 295 295 295 295 295 296 295 295 295 295 294 294 294 295 295 296 297 297 297 298 298 299 300 301 301 301 301 302 300 300 300 300 300 299 299 299 298 298 299 299 298 297 296 294 293 292 286
297 299 298 296 296 296 295 295 295 294 295 295 294 294 293 293 293 292 293 293 294 294 296 295 294 295 299 300 300 300 300 300 300 299 300 300 299 299 298 298 298 296 295 296 296 297 296 295 293 291 288 285
292 299 299 296 296 296 296 295 295 295 294 294 292 292 292 292 290 290 290 292 290 292 294 292 292 295 298 299 299 299 299 299 299 299 299 299 298 298 297 297 296 294 294 294 294 294 295 293 292 284 283 283
291 295 299 296 296 297 297 295 295 295 295 294 291 291 291 290 287 286 286 285 286 291 289 291 292 294 296 297 298 298 298 298 297 298 298 298 297 297 296 295 293 291 291 292 292 292 292 292 284 283 282 283
291 293 297 289 289 292 295 296 296 292 290 292 288 291 288 286 289 286 284 285 290 288 288 290 292 293 294 297 297 297 296 295 296 296 297 297 296 295 295 294 284 286 290 290 290 291 291 285 281 282 282 282
291 290 291 289 288 290 296 294 292 289 291 287 285 287 284 289 286 285 287 286 289 290 291 289 291 291 293 294 295 294 294 293 294 294 295 295 294 294 293 286 281 281 280 280 290 289 285 280 280 281 281 281
289 289 288 288 288 287 288 288 290 287 287 286 285 286 285 285 285 286 284 290 289 289 287 286 290 290 290 291 291 292 292 291 291 292 293 291 292 292 288 281 280 281 279 280 279 280 280 279 280 280 281 281
287 288 287 287 286 286 286 286 286 286 286 286 285 285 286 284 285 285 284 283 283 283 283 283 283 283 283 284 283 290 283 284 284 287 281 282 288 281 283 283 281 280 280 281 282 278 279 279 280 280 282 279
289 291 287 286 286 285 285 286 285 285 285 285 285 284 285 286 284 283 284 282 282 282 282 282 282 282 282 282 283 286 283 282 282 281 282 281 282 282 281 280 280 280 284 281 279 277 278 279 278 279 280 279
290 289 287 286 286 286 284 284 285 283 284 285 284 284 286 285 283 282 281 281 281 281 282 282 281 281 282 282 281 284 283 282 282 281 281 280 281 280 280 280 279 280 279 279 279 279 279 278 278 279 278 278
288 287 287 287 292 290 288 287 284 283 284 285 284 284 285 288 282 281 281 282 280 281 280 282 282 281 281 281 281 283 283 282 281 280 280 280 280 280 280 279 279 279 279 278 278 279 279 278 278 278 278 278
287 287 287 287 287 287 291 287 285 284 285 284 284 285 285 286 282 281 281 280 280 280 280 280 281 280 280 281 281 282 281 281 281 280 279 280 279 279 279 278 279 279 280 279 279 279 279 279 278 278 278 277
287 287 287 286 286 286 291 286 285 284 283 283 283 282 284 284 283 281 280 280 280 279 280 280 280 282 281 280 280 281 281 281 280 279 279 279 279 278 278 278 279 281 279 279 279 278 279 278 279 278 278 277
288 288 287 287 286 285 286 286 286 285 284 283 282 283 283 283 285 282 281 280 280 279 279 279 280 280 280 279 279 281 280 280 280 280 279 278 278 278 278 278 279 279 279 278 278 279 279 279 279 278 278 278
288 287 287 287 286 285 285 286 284 283 283 285 282 283 282 282 282 286 280 280 280 280 279 279 279 279 280 279 279 280 280 280 280 280 279 279 279 279 279 278 278 279 278 278 278 278 278 278 278 277 278 278
288 287 287 287 286 286 287 285 285 283 283 283 283 283 282 282 282 285 282 280 281 284 279 279 279 279 281 280 280 280 281 280 280 279 278 278 279 279 278 278 278 279 279 278 278 278 278 278 278 278 278 278
286 287 287 287 285 287 285 284 284 284 283 283 283 283 282 282 282 283 281 280 280 280 279 279 279 278 279 279 279 280 280 279 279 278 278 278 278 280 280 277 277 277 277 277 277 277 278 278 278 278 277 277
287 286 287 286 286 285 285 284 283 282 283 281 282 282 281 282 282 283 281 280 280 279 278 278 278 278 278 279 280 278 279 278 278 277 277 277 277 277 276 276 278 278 277 276 276 277 278 277 277 277 277 277
287 287 286 285 288 285 284 284 283 282 282 282 281 282 281 281 282 283 281 280 280 278 278 278 277 278 278 279 279 278 278 279 278 277 278 278 277 275 276 277 276 277 276 276 276 277 277 276 278 277 277 277
286 285 284 284 285 285 283 283 282 281 282 282 282 280 280 280 281 282 280 280 280 279 278 278 277 278 278 279 278 277 276 276 279 277 278 277 278 276 275 275 275 275 276 275 276 276 276 276 277 277 277 277
286 286 285 284 283 286 284 283 282 282 281 282 280 280 280 280 281 282 280 279 279 278 279 278 277 278 278 278 277 277 276 276 277 277 276 276 276 276 275 274 274 275 275 276 276 276 276 276 276 277 277 277
286 285 284 282 282 282 282 281 281 281 281 281 281 280 280 280 280 282 280 279 280 278 278 279 278 277 277 278 276 276 276 276 277 277 276 275 275 276 276 275 275 275 275 276 276 276 276 276 276 277 277 279
283 283 283 283 282 282 282 281 282 281 281 281 280 281 281 280 280 280 281 279 279 278 279 277 277 277 277 276 276 276 275 275 275 275 275 275 275 275 276 277 276 276 275 275 274 276 276 276 276 276 278 277
283 282 282 280 281 281 281 282 281 281 281 280 280 281 280 280 280 279 279 280 278 278 279 278 277 277 276 276 276 276 276 276 275 275 275 275 276 276 275 274 275 274 275 273 273 274 274 275 276 278 278 277
283 282 282 282 282 281 280 280 279 280 280 280 281 281 280 280 280 279 279 280 278 279 277 277 277 276 276 276 275 276 276 276 278 277 276 276 274 275 275 274 275 275 274 272 271 271 272 273 275 276 276 276
283 282 282 282 281 280 280 280 281 280 281 280 280 280 280 280 279 279 278 278 280 278 277 277 277 277 276 275 276 276 275 275 275 275 275 275 274 274 275 275 276 274 275 271 273 273 272 270 271 275 275 274
284 283 284 282 282 282 280 281 283 281 280 278 277 278 279 279 279 278 278 278 278 279 277 277 277 277 276 276 276 275 275 274 274 275 275 274 275 275 272 273 274 277 275 273 273 267 270 269 271 269 271 272
283 283 281 280 280 279 280 279 278 277 278 279 280 280 277 278 279 278 278 278 278 278 278 277 277 276 276 275 275 275 275 275 275 275 275 275 275 274 273 272 273 274 276 274 275 272 270 265 266 267 270 272
282 282 282 280 279 279 279 278 277 278 278 278 278 278 279 278 278 278 278 278 277 277 278 277 277 276 276 275 276 276 275 275 276 276 276 276 275 274 275 274 273 272 276 276 276 275 275 273 269 267 269 271
283 281 280 279 280 279 279 278 278 278 278 278 278 278 277 278 277 277 278 278 277 277 278 278 277 276 276 276 276 277 275 275 275 275 276 277 276 275 276 275 272 273 273 275 275 276 275 275 275 273 271 267

ECMWFFLT2_sfc_thetae_066.txt.gz
Theta_e
302 301 300 299 300 299 298 299 299 298 299 298 298 298 298 297 296 297 297 298 299 299 299 300 300 300 300 302 303 304 303 303 303 302 302 302 302 302 302 302 302 301 300 299 299 298 298 298 297 294 292 283
302 302 301 300 299 298 298 298 299 298 298 298 297 297 296 295 294 295 296 296 297 297 297 298 298 298 299 302 303 303 302 302 303 302 301 302 302 301 301 301 300 300 298 298 298 297 297 296 296 293 291 282
299 302 301 300 299 299 298 298 298 298 298 298 297 296 295 294 293 293 294 294 295 295 296 295 295 295 299 301 302 302 302 302 302 301 301 301 301 300 300 300 299 297 296 296 296 296 295 295 294 291 287 282
292 301 302 302 300 299 299 299 298 298 297 297 296 295 294 293 291 291 290 293 290 292 295 292 293 295 298 299 300 301 301 301 301 300 300 300 300 299 298 298 296 294 295 295 295 294 294 293 292 282 280 280
291 293 301 301 301 300 299 299 299 298 298 297 297 294 295 293 288 285 286 285 285 292 289 292 293 294 296 297 299 299 299 298 299 299 299 298 299 298 297 295 292 292 292 293 293 293 293 292 283 281 280 280
291 292 299 294 292 293 296 299 299 295 292 297 289 295 291 286 288 287 283 283 290 288 289 289 293 293 294 296 297 297 297 296 297 297 297 297 298 296 295 293 283 285 292 290 291 291 291 285 280 280 280 279
290 290 292 293 291 290 297 296 295 292 292 288 287 286 285 288 285 285 285 286 288 290 294 291 291 292 293 294 295 294 294 294 294 295 295 296 295 294 293 285 280 280 278 279 290 290 284 279 279 280 280 280
288 289 290 291 289 288 288 290 292 290 288 287 286 285 284 285 285 286 285 291 291 291 287 285 290 290 291 291 291 291 292 291 291 293 293 292 292 292 286 281 280 280 279 280 279 279 279 278 279 279 279 279
287 287 287 288 287 287 285 286 287 287 286 286 285 284 285 284 284 285 284 282 282 282 282 281 281 283 282 283 281 289 283 283 283 286 280 281 286 279 282 281 280 279 279 281 280 277 278 278 278 279 280 279
288 290 286 286 286 286 285 285 285 285 285 285 285 284 284 286 284 284 284 282 281 282 281 281 281 281 281 280 282 285 282 281 281 281 280 280 281 280 279 279 278 278 282 279 278 276 276 276 277 277 278 278
288 288 287 286 285 286 285 284 284 284 284 284 284 284 285 285 283 282 281 281 280 280 280 281 280 280 281 281 280 283 282 281 281 281 280 280 280 278 279 278 278 278 278 278 277 278 277 276 276 277 277 277
286 286 287 286 290 289 288 286 284 283 283 284 284 284 284 287 282 281 280 281 280 280 279 281 281 281 280 280 280 282 283 281 280 280 279 279 279 279 278 278 278 278 278 278 278 278 278 278 277 277 277 277
286 286 287 287 287 286 291 287 284 284 284 283 283 284 284 286 283 280 281 280 280 280 280 280 280 279 279 280 280 280 280 280 280 280 279 279 279 277 277 277 277 278 278 278 278 278 278 278 278 277 277 277
286 286 286 286 286 286 291 287 286 284 283 283 282 282 284 284 284 281 280 280 280 279 279 279 279 280 280 279 279 280 279 280 280 279 278 278 278 278 277 278 278 280 278 278 278 277 278 278 278 277 277 277
287 287 286 287 285 285 286 286 287 285 284 282 282 283 283 283 284 283 280 280 279 279 279 279 279 279 279 278 278 280 279 280 280 279 279 279 278 278 278 278 277 278 278 277 277 278 278 278 278 277 277 277
287 287 286 287 285 285 285 285 284 283 283 285 282 282 282 282 281 286 281 280 280 279 279 278 278 278 278 278 278 280 279 279 279 279 279 279 278 278 278 278 277 278 277 277 277 277 277 277 277 277 277 277
286 286 286 286 286 286 287 285 285 283 283 283 283 282 282 282 281 284 283 280 280 285 279 278 278 278 280 279 279 279 279 279 279 279 278 278 279 278 277 277 277 278 278 277 277 277 277 277 277 277 277 277
285 286 286 287 285 287 286 284 283 284 283 283 283 282 282 281 281 283 281 281 280 279 279 279 279 278 278 278 278 279 279 278 277 277 277 277 278 280 280 278 277 276 276 276 276 276 276 277 277 276 276 276
286 285 285 285 285 285 284 284 283 282 283 281 282 282 281 282 282 283 281 281 280 279 278 278 278 278 278 278 278 277 277 277 277 277 277 277 277 276 276 276 277 277 276 276 276 276 277 276 276 276 276 276
285 285 284 284 287 285 283 283 283 282 282 282 280 282 281 281 281 282 281 281 280 279 278 278 278 278 278 278 278 277 277 278 277 277 277 277 277 276 276 277 276 276 275 275 276 276 276 275 277 276 276 276
285 285 284 283 283 283 283 282 282 281 282 281 281 280 280 280 281 282 281 280 280 279 279 278 278 278 278 278 277 277 276 276 278 277 278 277 278 276 275 275 275 275 275 275 275 275 275 275 276 276 276 276
284 285 284 283 281 285 283 282 282 281 280 281 280 280 280 280 280 282 280 280 279 279 279 278 278 278 277 277 277 276 276 276 276 276 276 276 276 276 275 275 275 275 275 275 275 276 276 276 275 276 276 276
283 283 283 282 282 281 281 281 280 280 279 280 280 279 280 280 280 281 280 280 279 278 278 279 278 277 277 277 276 276 276 276 276 277 276 275 275 276 275 275 275 275 275 275 276 275 276 276 276 276 276 277
282 281 282 282 282 282 282 282 282 281 280 279 279 281 280 280 279 279 280 279 279 278 279 277 277 277 277 276 276 276 275 275 275 275 275 275 275 275 275 277 275 275 275 275 274 275 276 276 276 275 276 276
282 281 281 279 280 280 280 282 282 282 281 280 279 280 280 280 280 279 279 280 279 278 279 279 277 277 276 276 276 276 276 276 276 275 275 275 276 276 275 274 275 274 274 273 273 274 274 274 275 277 277 276
282 281 282 281 281 280 279 280 279 280 281 281 281 280 280 280 279 279 279 280 279 279 278 277 277 277 276 276 276 276 277 276 278 277 276 275 274 275 274 274 275 275 274 272 271 271 271 273 274 276 276 275
282 280 281 280 281 280 280 279 281 280 281 280 280 280 279 279 279 279 279 279 279 279 278 277 277 277 277 276 277 276 275 275 275 275 275 274 274 274 274 274 275 274 275 271 272 272 271 269 271 275 275 275
284 283 282 281 282 281 280 282 283 281 279 278 278 278 279 279 279 279 278 279 278 279 278 278 277 277 276 276 276 275 275 275 274 274 274 274 274 274 272 273 273 276 274 273 272 267 269 268 270 268 271 272
282 283 281 281 280 279 280 279 279 278 279 279 280 281 279 279 279 278 278 278 278 278 278 278 277 277 276 276 275 275 275 275 275 275 274 274 274 274 273 272 273 274 274 273 275 272 269 266 265 266 270 272
283 283 281 281 280 280 281 279 278 280 280 281 280 280 280 279 278 278 278 278 278 278 278 277 277 277 276 276 276 276 275 275 275 274 274 274 274 274 274 273 273 272 275 274 275 275 274 273 269 268 269 271
283 282 282 282 281 281 280 280 280 280 280 280 281 280 279 279 279 278 278 278 278 277 278 278 277 277 276 276 276 277 275 274 274 275 275 275 274 274 275 274 272 272 272 273 274 275 275 275 275 274 271 268